EncompDEV
CodeWizard

Download Field Explorer Pro and search all Standard, Virtual, Custom and RDB Fields in your Encompass

Search Fields in containing Field Changes
Your Field Search History
Time Search Version Fields
11/14/2018 05:24 Borrower N 18.4 1,826
Global Field Search History
Time Search Version Fields
11/14/2018 05:24 Borrower N 18.4 1,826
11/14/2018 05:24 HUD1 Borr 18.4 65
11/14/2018 05:24 3331 18.4 2
11/14/2018 05:24 3265 18.4 2
11/14/2018 05:24 es 18.4 14,856
11/14/2018 05:24 326 18.4 50
11/14/2018 05:24 itemization 18.4 108
11/14/2018 05:24 324 18.4 62
11/14/2018 05:24 servici 18.4 350
11/14/2018 05:24 737 18.4 32
11/14/2018 05:24 323 18.4 30
11/14/2018 05:24 GSEVENDOR.X24 18.4 1
11/14/2018 05:23 income verification 18.4 5
11/14/2018 05:23 3197 18.4 2
11/14/2018 05:23 907 18.4 77
11/14/2018 05:23 concession 18.4 113
11/14/2018 05:23 1205 18.4 47
11/14/2018 05:23 3192 18.4 2
11/14/2018 05:23 3170 18.4 2
11/14/2018 05:23 3166 18.4 3
11/14/2018 05:23 3164 18.4 3
11/14/2018 05:23 3152 18.4 2
11/14/2018 05:23 689 18.4 35
11/14/2018 05:23 3086 18.4 2
11/14/2018 05:23 300 18.4 130
11/14/2018 05:22 2998 18.4 2
11/14/2018 05:22 2997 18.4 2
11/14/2018 05:22 299 18.4 42
11/14/2018 05:22 2978 18.4 1
11/14/2018 05:22 HMDA.X11 18.4 4
11/14/2018 05:22 296 18.4 139
11/14/2018 05:22 981 18.4 11
11/14/2018 05:22 290 18.4 208
11/14/2018 05:22 2860 18.4 2
11/14/2018 05:22 2288 18.4 13
11/14/2018 05:22 indicator 18.4 681
11/14/2018 05:21 2827 18.4 2
11/14/2018 05:21 396 18.4 62
11/14/2018 05:21 2824 18.4 2
11/14/2018 05:21 Inte 18.4 588
11/14/2018 05:21 date of birth 18.4 2
11/14/2018 05:21 2553 18.4 1
11/14/2018 05:21 data template 18.4 1
11/14/2018 05:21 buyer's 18.4 23
11/14/2018 05:21 2400 18.4 2
11/14/2018 05:21 pu 18.4 315
11/14/2018 05:20 24 18.4 1,830
11/14/2018 05:20 AUS 18.4 513
11/14/2018 05:20 228 18.4 160
11/14/2018 05:20 22 18.4 1,684
11/14/2018 05:20 Hispanic or Latino 18.4 8
11/14/2018 05:20 204 18.4 95
11/14/2018 05:20 SYS. 18.4 550
11/14/2018 05:20 Q 18.4 8,139
11/14/2018 05:20 203K ltv 18.4 3
11/14/2018 05:20 HMDA.X7 18.4 10
11/14/2018 05:20 Price Lock 18.4 5,213
11/14/2018 05:20 Fin 18.4 797
11/14/2018 05:20 1880 18.4 2
11/14/2018 05:20 4075 18.4 2
11/14/2018 05:20 funding fee 18.4 145
11/14/2018 05:19 188 18.4 48
11/14/2018 05:19 FL0011 18.4 1
11/14/2018 05:19 1855 18.4 1
11/14/2018 05:19 employee state 18.4 6
11/14/2018 05:19 1766 18.4 2
11/14/2018 05:19 172 18.4 74
11/14/2018 05:19 1707 18.4 3
11/14/2018 05:19 qualified 18.4 81
11/14/2018 05:19 1677 18.4 3
11/14/2018 05:19 166 18.4 64
11/14/2018 05:19 1620 18.4 3
11/14/2018 05:19 3297 18.4 2
11/14/2018 05:18 162 18.4 63
11/14/2018 05:18 1619 18.4 2
11/14/2018 05:18 16 18.4 1,584
11/14/2018 05:18 third 18.4 47
11/14/2018 05:18 Arm type 18.4 21
11/14/2018 05:18 155 18.4 59
11/14/2018 05:18 cas 18.4 227
11/14/2018 05:18 1533 18.4 3
11/14/2018 05:18 1523 18.4 3
11/14/2018 05:18 150 18.4 90
11/14/2018 05:18 18 18.4 1,362
11/14/2018 05:18 HMDA.X28 18.4 1
11/14/2018 05:18 1490 18.4 4
11/14/2018 05:17 1415 18.4 15
11/14/2018 05:17 Credit Report 18.4 55
11/14/2018 05:17 1414 18.4 15
11/14/2018 05:17 85 18.4 381
11/14/2018 05:17 1412 18.4 3
11/14/2018 05:17 1240 18.4 3
11/14/2018 05:17 inc 18.4 970
11/14/2018 05:17 141 18.4 100
11/14/2018 05:17 1407 18.4 3
11/14/2018 05:17 1389 18.4 3
11/14/2018 05:17 Reserves 18.4 26
11/14/2018 05:17 1245 18.4 3
11/14/2018 05:17 AUS.X2 18.4 22
11/14/2018 05:17 1199 18.4 4
11/14/2018 05:17 1176 18.4 3
11/14/2018 05:16 1172 18.4 18
11/14/2018 05:16 recommen 18.4 9
11/14/2018 05:16 1102 18.4 316
11/14/2018 05:16 1101b 18.4 42
11/14/2018 05:16 110 18.4 973
11/14/2018 05:16 evalua 18.4 28
11/14/2018 05:16 1069 18.4 4
11/14/2018 05:16 confi 18.4 977
11/14/2018 05:16 1066 18.4 5
11/14/2018 05:16 4091 18.4 2
11/14/2018 05:16 1059 18.4 5
11/14/2018 05:16 1041 18.4 16
11/14/2018 05:15 1039 18.4 5
11/14/2018 05:15 1003 18.4 74
11/14/2018 05:15 100 18.4 604
11/14/2018 05:15 10 18.4 3,823
11/14/2018 05:15 newhud.x217 18.4 2
11/14/2018 05:15 per 18.4 1,247
11/14/2018 05:15 1 18.4 19,692
11/14/2018 05:15 07 18.4 671
11/14/2018 05:15 051 18.4 17
11/14/2018 05:15 investor delivery dat 18.4 13
11/14/2018 05:15 0212 18.4 1
11/14/2018 05:15 0204 18.4 2
11/14/2018 05:14 0116 18.4 2
11/14/2018 05:14 loan t 18.4 1,769
11/14/2018 05:14 (Previous 4) 18.4 6
11/14/2018 05:14 (Previou 18.4 5,954
11/14/2018 05:14 (Previo 18.4 5,954
11/14/2018 05:14 (Prev 18.4 5,954
11/14/2018 05:14 NMLS.x11 18.4 1
11/14/2018 05:14 unit number 18.4 2
11/14/2018 05:14 Trans 18.4 724
11/14/2018 05:14 origination poi 18.4 25
11/14/2018 05:14 1960 18.4 2
11/14/2018 05:14 615 18.4 12
11/14/2018 05:13 sys 18.4 556
11/14/2018 05:13 HMDA Loan Purpose 18.4 1
11/14/2018 05:13 lende 18.4 985
11/14/2018 05:13 AUSf.x1 18.4 11
11/14/2018 05:12 1206 18.4 51
11/14/2018 05:12 841 18.4 32
11/14/2018 05:12 ext 18.4 1,328
11/14/2018 05:12 601 18.4 13
11/14/2018 05:12 2626 18.4 2
11/14/2018 05:12 317 18.4 77
11/14/2018 05:12 preliminary 18.4 48
11/14/2018 05:11 mornet.x40 18.4 1
11/14/2018 05:11 Vietnamese 18.4 2
11/14/2018 05:11 Borrower Can Demonstrate 18.4 24
11/14/2018 05:11 ext 18.4 1,325
11/14/2018 05:10 Mavent Compliance 18.4 18
11/14/2018 05:10 du refi 18.4 3
11/14/2018 05:10 Fee Details - Line 801g 18.4 28
11/14/2018 05:10 Correspondent Loan 18.4 52
11/14/2018 05:09 expla 18.4 24
11/14/2018 05:09 LE1.X24 18.4 1
11/14/2018 05:09 borr name 18.4 121
11/14/2018 05:09 323 18.4 30
11/14/2018 05:09 cap 18.4 102
11/14/2018 05:09 de 18.4 17,909
11/14/2018 05:09 existing 18.4 92
11/14/2018 05:08 military 18.4 78
11/14/2018 05:08 fe0115 18.4 12
11/14/2018 05:08 Sales rep 18.4 4
11/14/2018 05:08 flood 18.4 109
11/14/2018 05:07 fee 18.4 7,001
11/14/2018 05:07 closing.ntendrs 18.4 28
11/14/2018 05:07 cd1.x18 18.4 1
11/14/2018 05:07 native ha 18.4 4
11/14/2018 05:06 L 18.4 31,538
11/14/2018 05:06 File contact Underwriter cont 18.4 30
11/14/2018 05:06 Ne 18.4 9,569
11/14/2018 05:06 builder 18.4 29
11/14/2018 05:05 final cd 18.4 26
11/14/2018 05:05 team phone 18.4 2
11/14/2018 05:05 services 18.4 32
11/14/2018 05:05 hmda.x26 18.4 1
11/14/2018 05:05 ULDD.X142 18.4 1
11/14/2018 05:05 newhud2.x3335 18.4 1
11/14/2018 05:05 Borr resid 18.4 69
11/14/2018 05:04 1114 18.4 57
11/14/2018 05:04 NEWHUD.X128 18.4 11
11/14/2018 05:04 fees 18.4 1,840
11/14/2018 05:04 primary 18.4 8
11/14/2018 05:03 milestone 18.4 34
11/14/2018 05:03 2400 18.4 2
11/14/2018 05:03 2000 18.4 3
11/14/2018 05:03 Lender Nam 18.4 37
11/14/2018 05:03 proposed maturity 18.4 2
11/14/2018 05:03 763 18.4 44
11/14/2018 05:03 proposed maturity 18.4 2
11/14/2018 05:03 contract 18.4 70
11/14/2018 05:03 reason 18.4 74
11/14/2018 05:03 present housing 18.4 11
11/14/2018 05:02 Survey 18.4 45
11/14/2018 05:02 hire date 18.4 2
11/14/2018 05:02 Refinance 18.4 71
11/14/2018 05:02 source 18.4 40
11/14/2018 05:02 closing disclosure date 18.4 157
11/14/2018 05:02 4179 18.4 2
11/14/2018 05:01 Trans Details Down 18.4 2
11/14/2018 05:01 143 18.4 71
11/14/2018 05:01 empir 18.4 172
11/14/2018 05:01 lender name 18.4 37
11/14/2018 05:00 Construction loa 18.4 12
11/14/2018 05:00 3985 18.4 2
11/14/2018 05:00 borrower pair 18.4 37
11/14/2018 05:00 eXPLAIN 18.4 5
11/14/2018 04:59 804 18.4 69
11/14/2018 04:59 4 18.4 12,928
11/14/2018 04:59 MI 18.4 1,158
11/14/2018 04:59 hmda.x52 18.4 1
11/14/2018 04:59 lender identifier 18.4 4
11/14/2018 04:59 Vend 18.4 1,015
11/14/2018 04:59 Commitment 18.4 151
11/14/2018 04:58 LE2.XSTD 18.4 2
11/14/2018 04:58 regz 18.4 275
11/14/2018 04:58 HMDA.x14 18.4 1
11/14/2018 04:58 aus du 18.4 6
11/14/2018 04:58 EDISCLOSED2015TRK.EDISCLOSUREB 18.4 1
11/14/2018 04:57 VASUMM.X2 18.4 22
11/14/2018 04:57 972 18.4 11
11/14/2018 04:57 course 18.4 4
11/14/2018 04:57 loan tea 18.4 14
11/14/2018 04:57 Te 18.4 16,598
11/14/2018 04:57 FE0115 18.4 12
11/14/2018 04:56 up 18.4 249
11/14/2018 04:56 fl 18.4 281
11/14/2018 04:56 desc 18.4 4,615
11/14/2018 04:56 L 18.4 28,711
11/14/2018 04:56 lock rate 18.4 13,604
11/14/2018 04:56 purpose 18.4 52
11/14/2018 04:56 Qualified mortgage loan type 18.4 1
11/14/2018 04:56 HMDA.X34 18.4 1
11/14/2018 04:56 1204 18.4 47
11/14/2018 04:55 hom 18.4 206
11/14/2018 04:55 sponsor id 18.4 7
11/14/2018 04:55 203k 18.4 121
11/14/2018 04:55 OR 18.4 8,735
11/14/2018 04:55 see 18.4 20
11/14/2018 04:55 4198 18.4 1
11/14/2018 04:55 l182 18.4 1
11/14/2018 04:55 closing.nt 18.4 66
11/14/2018 04:55 current 18.4 228
11/14/2018 04:55 fees interest fro 18.4 2
11/14/2018 04:55 Withdrawal Request 18.4 1
11/14/2018 04:55 Note Da 18.4 16
11/14/2018 04:55 936 18.4 22
11/14/2018 04:55 construction 18.4 88
11/14/2018 04:55 Recording 18.4 31
11/14/2018 04:55 3540 18.4 2
11/14/2018 04:55 ST License ID 18.4 18
11/14/2018 04:54 confirmed 18.4 976
11/14/2018 04:54 fully amortize 18.4 2
11/14/2018 04:54 execut 18.4 34
11/14/2018 04:54 disclosure.x95 18.4 11
11/14/2018 04:54 conversion 18.4 7
11/14/2018 04:54 Automated 18.4 4
11/14/2018 04:54 Holdba 18.4 2
11/14/2018 04:54 3039 18.4 2
11/14/2018 04:54 1524 18.4 4
11/14/2018 04:54 qm.x2 18.4 111
11/14/2018 04:54 interview date 18.4 1
11/14/2018 04:54 appraisal revie 18.4 5
11/14/2018 04:54 qm.x2 18.4 111
11/14/2018 04:54 period 18.4 92
11/14/2018 04:54 ae 18.4 734
11/14/2018 04:54 period 18.4 92
11/14/2018 04:53 MIP REFUND 18.4 1
11/14/2018 04:53 page 4 18.4 181
11/14/2018 04:53 orgID 18.4 1
11/14/2018 04:53 of 18.4 1,497
11/14/2018 04:53 license review 18.4 1
11/14/2018 04:53 l245 18.4 2
11/14/2018 04:53 transaction fees 18.4 2
11/14/2018 04:53 interest 18.4 292
11/14/2018 04:53 payment coupon 18.4 98
11/14/2018 04:53 interest 18.4 292
11/14/2018 04:53 pay date 18.4 130
11/14/2018 04:53 has 18.4 300
11/14/2018 04:53 Borrower id 18.4 467
11/14/2018 04:53 has 18.4 300
11/14/2018 04:53 4151 18.4 2
11/14/2018 04:53 fm 18.4 216
11/14/2018 04:53 est c 18.4 8,171
11/14/2018 04:53 ms.status 18.4 3
11/14/2018 04:53 lock (pre 18.4 6,770
11/14/2018 04:53 est c 18.4 8,171
11/14/2018 04:53 discount points 18.4 15
11/14/2018 04:53 cb 18.4 84
11/14/2018 04:53 act 18.4 1,396
11/14/2018 04:53 discount points 18.4 15
11/14/2018 04:53 nmls.x3 18.4 1
11/14/2018 04:53 bank 18.4 61
11/14/2018 04:53 automob 18.4 7
11/14/2018 04:53 Inte 18.4 574
11/14/2018 04:53 OR ID 18.4 1,887
11/14/2018 04:53 book 18.4 10
11/14/2018 04:53 OR ID 18.4 1,887
11/14/2018 04:53 Negative Amortization 18.4 15
11/14/2018 04:53 applicatio date 18.4 12
11/14/2018 04:53 Negative Amortization 18.4 15
11/14/2018 04:53 NE 18.4 9,425
11/14/2018 04:53 Loan Amo 18.4 357
11/14/2018 04:53 NE 18.4 9,425
11/14/2018 04:53 IR0005 18.4 1
11/14/2018 04:53 HPML 18.4 7
11/14/2018 04:53 FR0108 18.4 1
11/14/2018 04:53 AUSTRACKING 18.4 192
11/14/2018 04:53 370 18.4 142
11/14/2018 04:52 337 18.4 134
11/14/2018 04:52 3246 18.4 2
11/14/2018 04:52 1530 18.4 4
11/14/2018 04:52 0102 18.4 2
11/14/2018 04:52 servicing 18.4 350
11/14/2018 04:52 serv 18.4 950
11/14/2018 04:52 referral 18.4 6
11/14/2018 04:52 purchase advice 18.4 187
11/14/2018 04:52 pro 18.4 1,988
11/14/2018 04:52 other borrower 18.4 13
11/14/2018 04:52 org 18.4 82
11/14/2018 04:52 880 18.4 21
11/14/2018 04:52 org 18.4 82
11/14/2018 04:52 new loan 18.4 26
11/14/2018 04:52 lockrate.2287 18.4 1
11/14/2018 04:52 new 18.4 5,805
11/14/2018 04:52 DI 18.4 5,721
11/14/2018 04:52 loan nu 18.4 32
11/14/2018 04:52 condo 18.4 18
11/14/2018 04:52 COREMILESTONE 18.4 1
11/14/2018 04:52 borr 18.4 3,376
11/14/2018 04:52 arm type 18.4 21
11/14/2018 04:52 country 18.4 3
11/14/2018 04:52 ULDD.GNM.MrtggPrgrmType 18.4 1
11/14/2018 04:52 Subject indicator 18.4 6
11/14/2018 04:52 history 18.4 70
11/14/2018 04:52 Service F 18.4 180
11/14/2018 04:52 Security Inst 18.4 24
11/14/2018 04:52 Secti 18.4 819
11/14/2018 04:52 QM.x 18.4 372
11/14/2018 04:51 last cd 18.4 6
11/14/2018 04:51 zip 18.4 270
11/14/2018 04:51 Purchase A 18.4 257
11/14/2018 04:51 Previous 18.4 6,059
11/14/2018 04:51 ULDD.X188 18.4 1
11/14/2018 04:51 Organization 18.4 42
11/14/2018 04:51 years 18.4 56
11/14/2018 04:51 No 18.4 1,013
11/14/2018 04:51 Middle 18.4 4
11/14/2018 04:51 MORNET.X71 18.4 1
11/14/2018 04:51 MIP fund 18.4 2
11/14/2018 04:51 LE2. 18.4 53
11/14/2018 04:51 L358 18.4 1
11/14/2018 04:51 x133 18.4 38
11/14/2018 04:51 HMDA ex 18.4 1
11/14/2018 04:51 DISCLOSURE.X459 18.4 1
11/14/2018 04:51 DENIAL.X6 18.4 10
11/14/2018 04:51 DENIAL.X3 18.4 10
11/14/2018 04:51 x13 18.4 423
11/14/2018 04:51 DENIAL.X3 18.4 10
11/14/2018 04:51 DENIAL. 18.4 72
11/14/2018 04:51 reference 18.4 18
11/14/2018 04:51 DENIAL. 18.4 72
11/14/2018 04:51 Assum 18.4 33
11/14/2018 04:51 waiver 18.4 2
11/14/2018 04:51 369 18.4 153
11/14/2018 04:51 357 18.4 32
11/14/2018 04:51 2984 18.4 2
11/14/2018 04:51 2568 18.4 2
11/14/2018 04:51 S 18.4 29,651
11/14/2018 04:51 trustee 18.4 81
11/14/2018 04:51 represen 18.4 13
11/14/2018 04:51 party type 18.4 7
11/14/2018 04:51 negati 18.4 22
11/14/2018 04:51 mor 18.4 1,588
11/14/2018 04:51 waived 18.4 29
11/14/2018 04:51 mc 18.4 65
11/14/2018 04:50 manageme 18.4 362
11/14/2018 04:50 gro 18.4 39
11/14/2018 04:50 closing cost 18.4 122
11/14/2018 04:50 funding d 18.4 345
11/14/2018 04:50 verbal 18.4 1
11/14/2018 04:50 flood cert 18.4 12
11/14/2018 04:50 bor 18.4 3,522
11/14/2018 04:50 vend.x677 18.4 1
11/14/2018 04:50 bor 18.4 3,522
11/14/2018 04:50 loan officer 18.4 159
11/14/2018 04:50 bond program 18.4 2
11/14/2018 04:50 vend.x500 18.4 1
11/14/2018 04:50 1767 18.4 2
11/14/2018 04:50 acre 18.4 2
11/14/2018 04:50 constru 18.4 111
11/14/2018 04:50 acre 18.4 2
11/14/2018 04:50 Trans Details Est Closing 18.4 14
11/14/2018 04:50 SUBJECT PROPERTY TITLE NAME 18.4 2
11/14/2018 04:50 annual mi 18.4 9
11/14/2018 04:50 X 18.4 16,795
11/14/2018 04:50 SUBJECT PROPERTY TITLE NAME 18.4 2
11/14/2018 04:50 S 18.4 29,651
11/14/2018 04:50 ein 18.4 27
11/14/2018 04:50 vend.x140 18.4 1
11/14/2018 04:50 months ON JOB 18.4 2
11/14/2018 04:50 File conta 18.4 978
11/14/2018 04:50 File cont 18.4 978
11/14/2018 04:50 3453 18.4 2
11/14/2018 04:50 mca 18.4 63
11/14/2018 04:50 280 18.4 157
11/14/2018 04:50 va funding fee 18.4 6
11/14/2018 04:50 280 18.4 157
11/14/2018 04:50 (Previo 18.4 5,954
11/14/2018 04:50 vetera 18.4 51
11/14/2018 04:50 sur 18.4 2,639
11/14/2018 04:50 va f 18.4 412
11/14/2018 04:50 sur 18.4 2,639
11/14/2018 04:50 si 18.4 8,575
11/14/2018 04:50 ne 18.4 9,279
11/14/2018 04:50 CUST 18.4 200
11/14/2018 04:50 ne 18.4 9,279
11/14/2018 04:50 va case 18.4 1
11/14/2018 04:50 ms.st 18.4 5
11/14/2018 04:50 party 18.4 91
11/14/2018 04:50 cd req 18.4 1
11/14/2018 04:50 seco 18.4 38
11/14/2018 04:50 cd 18.4 1,234
11/14/2018 04:50 case 18.4 21
11/14/2018 04:50 v 18.4 10,722
11/14/2018 04:49 cd 18.4 1,234
11/14/2018 04:49 bir 18.4 1
11/14/2018 04:49 MI 18.4 1,160
11/14/2018 04:49 service. 18.4 148
11/14/2018 04:49 NEWH 18.4 5,705
11/14/2018 04:49 Monthly 18.4 188
11/14/2018 04:49 FM0020 18.4 1
11/14/2018 04:49 rental income 18.4 7
11/14/2018 04:49 FHA case 18.4 4
11/14/2018 04:49 govt 18.4 22
11/14/2018 04:49 DEED 18.4 12
11/14/2018 04:49 Casasrn.x107 18.4 1
11/14/2018 04:49 uw 18.4 22
11/14/2018 04:49 3000 18.4 2
11/14/2018 04:49 special f 18.4 11
11/14/2018 04:49 edisclos 18.4 47
11/14/2018 04:49 Warranty 18.4 6
11/14/2018 04:49 Subordinat 18.4 58
11/14/2018 04:49 userid 18.4 4
11/14/2018 04:49 first pay dat 18.4 6
11/14/2018 04:49 declaration l 18.4 32
11/14/2018 04:49 40 18.4 886
11/14/2018 04:49 use 18.4 516
11/14/2018 04:49 last 18.4 496
11/14/2018 04:49 1883 18.4 1
11/14/2018 04:49 descript 18.4 383
11/14/2018 04:49 last 18.4 496
11/14/2018 04:49 AUStracking 18.4 192
11/14/2018 04:49 UWC. 18.4 29
11/14/2018 04:49 MORTGAGE PR 18.4 189
11/14/2018 04:49 Post closing 18.4 57
11/14/2018 04:49 usda 18.4 224
11/14/2018 04:49 Post closing 18.4 57
11/14/2018 04:49 FULFille 18.4 39
11/14/2018 04:49 file ID 18.4 16
11/14/2018 04:49 2592 18.4 12
11/14/2018 04:49 upfont 18.4 12
11/14/2018 04:49 2592 18.4 12
11/14/2018 04:49 disclosure. 18.4 1,186
11/14/2018 04:49 units 18.4 30
11/14/2018 04:48 4197 18.4 2
11/14/2018 04:48 unit 18.4 52
11/14/2018 04:48 underwriting 18.4 193
11/14/2018 04:48 FV.X347 18.4 1
11/14/2018 04:48 underwriter email 18.4 2
11/14/2018 04:48 under 18.4 278
11/14/2018 04:48 uldd.x28 18.4 1
11/14/2018 04:48 payment date 18.4 100
11/14/2018 04:48 uldd.x187 18.4 1
11/14/2018 04:48 uldd.x171 18.4 1
11/14/2018 04:48 loan originator ID 18.4 3
11/14/2018 04:47 uldd - Investor feature id 18.4 3
11/14/2018 04:47 disclosure.x104 18.4 11
11/14/2018 04:47 2626 18.4 2
11/14/2018 04:47 uldd - Investor 18.4 14
11/14/2018 04:47 1399 18.4 3
11/14/2018 04:47 uldd - I 18.4 137
11/14/2018 04:47 coverage 18.4 12
11/14/2018 04:47 uldd 18.4 298
11/14/2018 04:47 FHA 203k B11 18.4 1
11/14/2018 04:47 ufmip 18.4 8
11/14/2018 04:47 u 18.4 25,683
11/14/2018 04:47 type 18.4 911
11/14/2018 04:46 ty 18.4 2,384
11/14/2018 04:46 verification 18.4 16
11/14/2018 04:46 included 18.4 17
11/14/2018 04:46 trans details 18.4 421
11/14/2018 04:46 Unpaid Principal Bal 18.4 8
11/14/2018 04:46 trade 18.4 19
11/14/2018 04:46 tim 18.4 536
11/14/2018 04:46 tr 18.4 2,453
11/14/2018 04:46 tql 18.4 125
11/14/2018 04:46 title 18.4 333
11/14/2018 04:46 til initial 18.4 3
11/14/2018 04:46 loan originato 18.4 10
11/14/2018 04:46 Loa 18.4 1,901
11/14/2018 04:46 til init 18.4 3
11/14/2018 04:45 test 18.4 55
11/14/2018 04:45 REQUEST.X10 18.4 1
11/14/2018 04:45 wh 18.4 5,854
11/14/2018 04:45 termination 18.4 12
11/14/2018 04:45 rec 18.4 6,295
11/14/2018 04:45 temporary buydown 18.4 3
11/14/2018 04:45 3032 18.4 2
11/14/2018 04:45 ssa 18.4 98
11/14/2018 04:45 re 18.4 20,414
11/14/2018 04:45 temporary b 18.4 3
11/14/2018 04:45 rate s 18.4 13,918
11/14/2018 04:45 Use Actual Down Payment & Closing Costs Financed 18.4 1
11/14/2018 04:45 team 18.4 12
11/14/2018 04:45 price 18.4 5,250
11/14/2018 04:45 mic 18.4 3
11/14/2018 04:45 taxes 18.4 59
11/14/2018 04:45 personal 18.4 23
11/14/2018 04:45 pri 18.4 5,555
11/14/2018 04:45 tax 18.4 299
11/14/2018 04:45 previous 18.4 7,061
11/14/2018 04:45 newh 18.4 5,803
11/14/2018 04:45 18 18.4 1,350
11/14/2018 04:45 fullfi 18.4 2
11/14/2018 04:45 new h 18.4 5,845
11/14/2018 04:44 mo 18.4 11,444
11/14/2018 04:44 m 18.4 24,251
11/14/2018 04:44 target 18.4 13
11/14/2018 04:44 reference 18.4 18
11/14/2018 04:44 lockrate. 18.4 4,531
11/14/2018 04:44 NEWHUD2. 18.4 3,978
11/14/2018 04:44 table 18.4 63
11/14/2018 04:44 lockrate 18.4 12,421
11/14/2018 04:44 Lock St 18.4 13,013
11/14/2018 04:44 borr name 18.4 125
11/14/2018 04:44 lock rate 18.4 13,604
11/14/2018 04:44 LOCKRAT 18.4 12,421
11/14/2018 04:44 lock price 18.4 5,213
11/14/2018 04:44 Fee Li 18.4 6,022
11/14/2018 04:44 it 18.4 4,463
11/14/2018 04:44 Fee 18.4 8,153
11/14/2018 04:44 f 18.4 17,026
11/14/2018 04:44 vi 18.4 8,253
11/14/2018 04:44 did 18.4 147
11/14/2018 04:44 VASUMM.X22 18.4 1
11/14/2018 04:44 es 18.4 16,824
11/14/2018 04:44 su 18.4 3,914
11/14/2018 04:44 res 18.4 1,274
11/14/2018 04:44 en 18.4 16,787
11/14/2018 04:44 poc 18.4 1,381
11/14/2018 04:44 book 18.4 10
11/14/2018 04:44 modifi 18.4 20
11/14/2018 04:44 Base Loan Amount 18.4 11
11/14/2018 04:44 disc 18.4 2,948
11/14/2018 04:44 di 18.4 6,011
11/14/2018 04:44 newhud2.x 18.4 3,978
11/14/2018 04:44 d 18.4 30,763
11/14/2018 04:44 newhu 18.4 5,803
11/14/2018 04:44 1848 18.4 1
11/14/2018 04:43 lock request 18.4 8,041
11/14/2018 04:43 nam 18.4 1,080
11/14/2018 04:43 amount 18.4 4,153
11/14/2018 04:43 refinance type 18.4 6
11/14/2018 04:43 lock ex 18.4 1,410
11/14/2018 04:43 adjustment 18.4 5,419
11/14/2018 04:43 t 18.4 29,417
11/14/2018 04:43 line 18.4 7,407
11/14/2018 04:43 HMDA.X11 18.4 1
11/14/2018 04:43 Amount 18.4 4,036
11/14/2018 04:43 em 18.4 2,191
11/14/2018 04:43 survey 18.4 45
11/14/2018 04:43 adjustme 18.4 5,420
11/14/2018 04:43 j 18.4 10,866
11/14/2018 04:43 V 18.4 12,028
11/14/2018 04:43 ULD 18.4 304
11/14/2018 04:43 for 18.4 1,146
11/14/2018 04:43 Sales Rep 18.4 4
11/14/2018 04:43 fee borr 18.4 1,462
11/14/2018 04:43 extensio 18.4 1,035
11/14/2018 04:43 SE 18.4 16,969
11/14/2018 04:43 summary 18.4 80
11/14/2018 04:43 exten 18.4 1,124
11/14/2018 04:43 el 18.4 7,577
11/14/2018 04:43 summ 18.4 197
11/14/2018 04:43 custom 18.4 1,178
11/14/2018 04:43 Pri 18.4 5,555
11/14/2018 04:43 cl 18.4 4,160
11/14/2018 04:43 sum 18.4 327
11/14/2018 04:43 334 18.4 36
11/14/2018 04:43 P 18.4 25,017
11/14/2018 04:43 by o 18.4 1,240
11/14/2018 04:43 credit 18.4 482
11/14/2018 04:43 bu 18.4 3,739
11/14/2018 04:43 subordinate 18.4 54
11/14/2018 04:43 bo 18.4 3,954
11/14/2018 04:43 base 18.4 9,293
11/14/2018 04:43 automobile 18.4 7
11/14/2018 04:43 subo 18.4 58
11/14/2018 04:43 ap 18.4 1,431
11/14/2018 04:43 NEWHUD 18.4 5,803
11/14/2018 04:43 adj 18.4 10,157
11/14/2018 04:43 submitting 18.4 13
11/14/2018 04:42 Mo 18.4 11,444
11/14/2018 04:42 act 18.4 1,443
11/14/2018 04:42 X 18.4 17,090
11/14/2018 04:42 other 18.4 1,094
11/14/2018 04:42 M 18.4 24,251
11/14/2018 04:42 subject state 18.4 33
11/14/2018 04:42 Lock (Most Recent 18.4 5,533
11/14/2018 04:42 subject indicator 18.4 6
11/14/2018 04:42 Un 18.4 6,079
11/14/2018 04:42 LOCKRATE 18.4 12,421
11/14/2018 04:42 Sell 18.4 4,823
11/14/2018 04:42 plat 18.4 24
11/14/2018 04:42 sub 18.4 547
11/14/2018 04:42 Request 18.4 8,313
11/14/2018 04:42 Com 18.4 4,348
11/14/2018 04:42 Re 18.4 20,414
11/14/2018 04:42 Base 18.4 9,293
11/14/2018 04:42 street 18.4 149
11/14/2018 04:42 REQU 18.4 8,636
11/14/2018 04:42 Mort 18.4 1,556
11/14/2018 04:42 2 18.4 20,540
11/14/2018 04:42 MI 18.4 1,199
11/14/2018 04:42 1 18.4 21,213
11/14/2018 04:42 str 18.4 603
11/14/2018 04:42 Lock 18.4 13,781
11/14/2018 04:42 BenNm 18.4 2
11/14/2018 04:42 180 18.4 42
11/14/2018 04:42 t 18.4 32,362
11/14/2018 04:42 Hud 1 18.4 3,271
11/14/2018 04:42 spec 18.4 128
11/14/2018 04:42 pro 18.4 2,029
11/14/2018 04:42 debt 18.4 70
11/14/2018 04:42 resci 18.4 3
11/14/2018 04:42 File contac 18.4 1,004
11/14/2018 04:42 step rate 18.4 1
11/14/2018 04:42 payee code 18.4 10
11/14/2018 04:42 category 18.4 70
11/14/2018 04:42 se 18.4 16,969
11/14/2018 04:42 payee code 18.4 10
11/14/2018 04:42 party type 18.4 7
11/14/2018 04:42 EDISCLOSED2015TRK.EDISCLOSUREBORROWE 18.4 1
11/14/2018 04:42 s 18.4 32,493
11/14/2018 04:42 party type 18.4 7
11/14/2018 04:42 step payment 18.4 2
11/14/2018 04:42 request 18.4 8,313
11/14/2018 04:42 parcel 18.4 1
11/14/2018 04:42 DISCLOS 18.4 2,770
11/14/2018 04:42 parcel 18.4 1
11/14/2018 04:42 mor 18.4 1,588
11/14/2018 04:42 Inspection 18.4 19
11/14/2018 04:42 Closing Disclosu 18.4 1,015
11/14/2018 04:42 mineral 18.4 2
11/14/2018 04:41 rate request lock 18.4 7,896
11/14/2018 04:41 step paym 18.4 2
11/14/2018 04:41 this 18.4 18
11/14/2018 04:41 mineral 18.4 2
11/14/2018 04:41 Closing 18.4 2,119
11/14/2018 04:41 lot 18.4 8
11/14/2018 04:41 rate 18.4 13,952
11/14/2018 04:41 life of loan 18.4 3
11/14/2018 04:41 ot 18.4 3,630
11/14/2018 04:41 newhud2.x2841 18.4 1
11/14/2018 04:41 Prope 18.4 621
11/14/2018 04:41 CE 18.4 12,465
11/14/2018 04:41 life of loan 18.4 3
11/14/2018 04:41 step 18.4 8
11/14/2018 04:41 initial fi 18.4 15
11/14/2018 04:41 Borr F 18.4 2,427
11/14/2018 04:41 borr 18.4 3,282
11/14/2018 04:41 or 18.4 8,800
11/14/2018 04:41 5 18.4 9,484
11/14/2018 04:41 uldd appraisal id 18.4 1
11/14/2018 04:41 std 18.4 45
11/14/2018 04:41 ms.st 18.4 5
11/14/2018 04:41 newhud2 18.4 3,978
11/14/2018 04:41 newhud.x1143 18.4 1
11/14/2018 04:41 model 18.4 6
11/14/2018 04:41 ne 18.4 9,604
11/14/2018 04:41 x98 18.4 77
11/14/2018 04:41 status 18.4 174
11/14/2018 04:41 co-bo 18.4 582
11/14/2018 04:41 608 18.4 24
11/14/2018 04:41 x223 18.4 22
11/14/2018 04:41 stable monthly income 18.4 4
11/14/2018 04:41 n 18.4 31,289
11/14/2018 04:41 written 18.4 19
11/14/2018 04:41 wish 18.4 15
11/14/2018 04:41 los 18.4 4,008
11/14/2018 04:41 lockr 18.4 12,421
11/14/2018 04:41 verified 18.4 12
11/14/2018 04:41 lock 3 18.4 7,397
11/14/2018 04:41 st 18.4 15,360
11/14/2018 04:41 471 18.4 35
11/14/2018 04:41 verif 18.4 60
11/14/2018 04:41 lock (p 18.4 6,770
11/14/2018 04:41 vend.x735 18.4 1
11/14/2018 04:41 ssn 18.4 173
11/14/2018 04:41 lock ( 18.4 12,310
11/14/2018 04:41 vend.x43 18.4 11
11/14/2018 04:41 lock 18.4 13,781
11/14/2018 04:41 ven 18.4 1,105
11/14/2018 04:41 valuation 18.4 9
11/14/2018 04:41 HMDA.X12 18.4 1
11/14/2018 04:41 ssa-89 18.4 12
11/14/2018 04:41 uwC.AC 18.4 2
11/14/2018 04:40 lo 18.4 19,622
11/14/2018 04:40 uldd.x148 18.4 1
11/14/2018 04:40 trans detail total late payment 18.4 1
11/14/2018 04:40 le 18.4 5,984
11/14/2018 04:40 trans detail preapproval 18.4 1
11/14/2018 04:40 ssa 18.4 49
11/14/2018 04:40 trans de 18.4 527
11/14/2018 04:40 SYS.X268 18.4 1
11/14/2018 04:40 tpoi 18.4 12
11/14/2018 04:40 specific 18.4 65
11/14/2018 04:40 the 18.4 1,314
11/14/2018 04:40 solar 18.4 4
11/14/2018 04:40 terms.intr 18.4 1
11/14/2018 04:40 templat 18.4 24
11/14/2018 04:40 social 18.4 16
11/14/2018 04:40 telephone 18.4 32
11/14/2018 04:40 subject property type fan 18.4 12
11/14/2018 04:40 document.company 18.4 1
11/14/2018 04:40 subject pr 18.4 340
11/14/2018 04:40 signing 18.4 27
11/14/2018 04:40 statement 18.4 16
11/14/2018 04:40 763 18.4 44
11/14/2018 04:40 started 18.4 2
11/14/2018 04:40 x134 18.4 37
11/14/2018 04:40 equifax 18.4 177
11/14/2018 04:40 shee 18.4 102
11/14/2018 04:40 in 18.4 16,708
11/14/2018 04:40 settlementagent 18.4 11
11/14/2018 04:40 serv 18.4 953
11/14/2018 04:40 16 18.4 1,584
11/14/2018 04:40 i 18.4 32,630
11/14/2018 04:40 sellers 18.4 28
11/14/2018 04:40 section of housi 18.4 1
11/14/2018 04:40 section of ho 18.4 1
11/14/2018 04:40 hu 18.4 6,446
11/14/2018 04:40 side 18.4 5,248
11/14/2018 04:39 second term 18.4 1
11/14/2018 04:39 sec 35 hpml average prime offer rat 18.4 1
11/14/2018 04:39 fi 18.4 5,152
11/14/2018 04:39 fee 18.4 8,153
11/14/2018 04:39 shop 18.4 278
11/14/2018 04:39 det 18.4 4,347
11/14/2018 04:39 right to ca 18.4 21
11/14/2018 04:39 c 18.4 29,929
11/14/2018 04:39 shipping 18.4 33
11/14/2018 04:39 DEB 18.4 60
11/14/2018 04:39 rig 18.4 247
11/14/2018 04:39 ar 18.4 6,425
11/14/2018 04:39 1109 18.4 69
11/14/2018 04:39 Rate lock 18.4 13,604
11/14/2018 04:39 ret 18.4 125
11/14/2018 04:39 sheet 18.4 102
11/14/2018 04:39 IL 18.4 6,224
11/14/2018 04:39 respa.x6 18.4 1
11/14/2018 04:39 repur 18.4 7
11/14/2018 04:39 she 18.4 119
11/14/2018 04:39 reporting 18.4 4
11/14/2018 04:39 HU 18.4 6,446
11/14/2018 04:39 CD4.X9 18.4 1
11/14/2018 04:39 repair 18.4 9
11/14/2018 04:39 sharing 18.4 11
11/14/2018 04:39 E 18.4 34,199
11/14/2018 04:39 D 18.4 30,763
11/14/2018 04:39 rent income 18.4 14
11/14/2018 04:39 reo 18.4 5
11/14/2018 04:39 rent 18.4 384
11/14/2018 04:39 Cl 18.4 4,160
11/14/2018 04:39 sex 18.4 3
11/14/2018 04:39 relationship 18.4 44
11/14/2018 04:39 relati 18.4 59
11/14/2018 04:39 AR 18.4 6,425
11/14/2018 04:39 refun 18.4 66
11/14/2018 04:39 2106 18.4 35
11/14/2018 04:39 8 18.4 11,315
11/14/2018 04:39 refinance 18.4 72
11/14/2018 04:39 line descr 18.4 275
11/14/2018 04:39 refi type 18.4 8
11/14/2018 04:38 setup 18.4 19
11/14/2018 04:38 0109 18.4 2
11/14/2018 04:38 7 18.4 9,846
11/14/2018 04:38 recommen 18.4 9
11/14/2018 04:38 settlementagent 18.4 11
11/14/2018 04:38 reasons 18.4 15
11/14/2018 04:38 122 18.4 70
11/14/2018 04:38 rate se 18.4 10,169
11/14/2018 04:38 set 18.4 323
11/14/2018 04:38 purpo 18.4 55
11/14/2018 04:38 product code 18.4 12
11/14/2018 04:38 prior 18.4 35
11/14/2018 04:38 1041 18.4 15
11/14/2018 04:38 servicing 18.4 350
11/14/2018 04:38 prepaymen 18.4 50
11/14/2018 04:38 (Previous 18.4 6,974
11/14/2018 04:38 points and fees 18.4 137
11/14/2018 04:38 servicer 18.4 103
11/14/2018 04:38 35 18.4 1,213
11/14/2018 04:38 u 18.4 28,359
11/14/2018 04:38 Loan Pu 18.4 52
11/14/2018 04:38 servi 18.4 886
11/14/2018 04:38 LOG.MS.LASTCO 18.4 1
11/14/2018 04:38 307 18.4 104
11/14/2018 04:38 LO 18.4 19,622
11/14/2018 04:38 ty 18.4 2,483
11/14/2018 04:38 LE2.X96 18.4 1
11/14/2018 04:38 sequence 18.4 12
11/14/2018 04:38 to 18.4 6,016
11/14/2018 04:38 th 18.4 2,548
11/14/2018 04:38 LE2.X5 18.4 1
11/14/2018 04:38 sentdate 18.4 6
11/14/2018 04:38 35 18.4 1,213
11/14/2018 04:38 LE1.X24 18.4 1
11/14/2018 04:38 e 18.4 31,126
11/14/2018 04:38 sur 18.4 2,791
11/14/2018 04:38 sent date 18.4 40
11/14/2018 04:38 LE sen 18.4 36
11/14/2018 04:38 reque 18.4 8,324
11/14/2018 04:37 LE Loan Snapshot - Loan Amount 18.4 1
11/14/2018 04:37 L81 18.4 2
11/14/2018 04:37 rate lock 18.4 13,604
11/14/2018 04:37 L245 18.4 2
11/14/2018 04:37 605 18.4 13
11/14/2018 04:37 Info not 18.4 24
11/14/2018 04:37 rat 18.4 14,117
11/14/2018 04:37 Interviewer's License Number 18.4 2
11/14/2018 04:37 ID 18.4 10,113
11/14/2018 04:37 prev 18.4 7,122
11/14/2018 04:37 sent 18.4 177
11/14/2018 04:37 va rl 18.4 1
11/14/2018 04:37 HMDA.X109 18.4 1
11/14/2018 04:37 updated 18.4 9
11/14/2018 04:37 pa 18.4 8,126
11/14/2018 04:37 updated 18.4 9
11/14/2018 04:37 File Contacts Loan Proce 18.4 6
11/14/2018 04:37 1305 18.4 58
11/14/2018 04:37 beacon 18.4 172
11/14/2018 04:37 send 18.4 21
11/14/2018 04:37 Fil 18.4 1,148
11/14/2018 04:37 app. 18.4 1
11/14/2018 04:37 newhud2.x2478 18.4 1
11/14/2018 04:37 app. 18.4 1
11/14/2018 04:37 FM0041 18.4 1
11/14/2018 04:37 p 18.4 25,017
11/14/2018 04:37 1264 18.4 3
11/14/2018 04:37 FL0015 18.4 1
11/14/2018 04:37 sen 18.4 201
11/14/2018 04:37 1010 18.4 46
11/14/2018 04:37 FHA Sponsor 18.4 3
11/14/2018 04:37 1010 18.4 46
11/14/2018 04:37 o 18.4 32,444
11/14/2018 04:37 wr 18.4 260
11/14/2018 04:37 FE0217 18.4 1
11/14/2018 04:37 und 18.4 875
11/14/2018 04:37 margin 18.4 2,056
11/14/2018 04:37 FE0115 18.4 12
11/14/2018 04:37 und 18.4 875
11/14/2018 04:37 selling 18.4 1
11/14/2018 04:37 688 18.4 34
11/14/2018 04:37 uldd.x27 18.4 1
11/14/2018 04:37 lock (pre 18.4 6,770
11/14/2018 04:37 Document.DateOrdere 18.4 1
11/14/2018 04:37 type 18.4 931
11/14/2018 04:37 Document typ 18.4 26
11/14/2018 04:37 type 18.4 931
11/14/2018 04:37 seller nam 18.4 17
11/14/2018 04:37 total loan 18.4 67
11/14/2018 04:37 Document Signing 18.4 1
11/14/2018 04:37 lock (Most rec 18.4 5,533
11/14/2018 04:37 total loan 18.4 67
11/14/2018 04:37 Disclosure.X564 18.4 1
11/14/2018 04:37 survey date 18.4 3
11/14/2018 04:37 Disclosure Information 18.4 1
11/14/2018 04:37 aka 18.4 2
11/14/2018 04:37 loc 18.4 13,876
11/14/2018 04:37 request 18.4 7,208
11/14/2018 04:37 seller 18.4 1,953
11/14/2018 04:37 refund 18.4 61
11/14/2018 04:37 113 18.4 152
11/14/2018 04:37 Date I 18.4 1,281
11/14/2018 04:37 refund 18.4 61
11/14/2018 04:37 rescission 18.4 2
11/14/2018 04:37 qual 18.4 320
11/14/2018 04:37 DISCLOSURE.X631 18.4 1
11/14/2018 04:37 processor 18.4 25
11/14/2018 04:37 interim 18.4 263
11/14/2018 04:37 DISCLOSURE.X481 18.4 1
11/14/2018 04:36 interim 18.4 263
11/14/2018 04:36 li 18.4 9,654
11/14/2018 04:36 DISCLOSURE.X48 18.4 11
11/14/2018 04:36 in 18.4 16,461
11/14/2018 04:36 selected 18.4 12
11/14/2018 04:36 hmda.x24 18.4 1
11/14/2018 04:36 id 18.4 10,113
11/14/2018 04:36 hmda. 18.4 94
11/14/2018 04:36 DISCLOSURE.X364 18.4 1
11/14/2018 04:36 hmda. 18.4 94
11/14/2018 04:36 funded 18.4 8
11/14/2018 04:36 ice 18.4 6,657
11/14/2018 04:36 funded 18.4 8
11/14/2018 04:36 estimated 18.4 41
11/14/2018 04:36 section 18.4 783
11/14/2018 04:36 g 18.4 10,868
11/14/2018 04:36 credit decision 18.4 14
11/14/2018 04:36 DD001 18.4 10
11/14/2018 04:36 coop 18.4 12
11/14/2018 04:36 des 18.4 5,625
11/14/2018 04:36 conv 18.4 9
11/14/2018 04:36 Credit Rpt Ref 18.4 1
11/14/2018 04:36 disclosure.x95 18.4 11
11/14/2018 04:36 closer 18.4 6
11/14/2018 04:36 Closing Discl 18.4 1,016
11/14/2018 04:36 capiaP.X9 18.4 1
11/14/2018 04:36 de 18.4 17,909
11/14/2018 04:36 buy 18.4 2,926
11/14/2018 04:36 Document 18.4 488
11/14/2018 04:36 Census 18.4 2
11/14/2018 04:36 da 18.4 2,320
11/14/2018 04:36 branch id 18.4 65
11/14/2018 04:36 rate lock buy requested by 18.4 12
11/14/2018 04:36 branch id 18.4 65
11/14/2018 04:36 bor 18.4 3,682
11/14/2018 04:36 COND.OPEN.P 18.4 2
11/14/2018 04:36 bor 18.4 3,682
11/14/2018 04:36 attenti 18.4 12
11/14/2018 04:36 com 18.4 4,348
11/14/2018 04:36 CONCESSION 18.4 113
11/14/2018 04:36 approval date 18.4 32
11/14/2018 04:36 second 18.4 38
11/14/2018 04:36 co 18.4 10,428
11/14/2018 04:36 amount 18.4 4,074
11/14/2018 04:36 CD3.X12 18.4 40
11/14/2018 04:36 2499 18.4 13
11/14/2018 04:36 amount 18.4 4,074
11/14/2018 04:36 610 18.4 14
11/14/2018 04:36 CD1.XD9 18.4 1
11/14/2018 04:36 amortization type 18.4 10
11/14/2018 04:36 hmda.x93 18.4 1
11/14/2018 04:36 amortization type 18.4 10
11/14/2018 04:36 CASASRN.X107 18.4 1
11/14/2018 04:36 bor 18.4 3,801
11/14/2018 04:36 amortization 18.4 32
11/14/2018 04:36 sec 32 18.4 258
11/14/2018 04:36 additional 18.4 389
11/14/2018 04:36 CASASRN.X1 18.4 55
11/14/2018 04:36 VF 18.4 2
11/14/2018 04:36 Business 18.4 177
11/14/2018 04:36 VF 18.4 2
11/14/2018 04:36 score 18.4 561
11/14/2018 04:36 ULDD.X1 18.4 100
11/14/2018 04:36 MIP REFUND 18.4 1
11/14/2018 04:35 Borrower N 18.4 1,826
11/14/2018 04:35 ULDD.X1 18.4 100
11/14/2018 04:35 amo 18.4 4,290
11/14/2018 04:35 Trans Details 18.4 430
11/14/2018 04:35 Borrower Indicator 18.4 13
11/14/2018 04:35 Trans Details 18.4 430
11/14/2018 04:35 sched 18.4 235
11/14/2018 04:35 sys.x2 18.4 104
11/14/2018 04:35 Real estate owned 18.4 1
11/14/2018 04:35 Borr Race Info not prov 18.4 2
11/14/2018 04:35 Real estate owned 18.4 1
11/14/2018 04:35 Milestone Date 18.4 18
11/14/2018 04:35 Borr Employe 18.4 141
11/14/2018 04:35 Milestone Date 18.4 18
11/14/2018 04:35 Mavent 18.4 18
11/14/2018 04:35 scenario 18.4 75
11/14/2018 04:35 BE0004 18.4 2
11/14/2018 04:35 Mavent 18.4 18
11/14/2018 04:35 Assistant 18.4 2
11/14/2018 04:35 LoanTeammember.name 18.4 1
11/14/2018 04:35 sate 18.4 60
11/14/2018 04:35 Lender ID 18.4 266
11/14/2018 04:35 relations 18.4 44
11/14/2018 04:35 age 18.4 2,182
11/14/2018 04:35 Lender ID 18.4 266
11/14/2018 04:35 compar 18.4 2,584
11/14/2018 04:35 As completed purchase price 18.4 1
11/14/2018 04:35 Land 18.4 68
11/14/2018 04:35 adjust 18.4 9,985
11/14/2018 04:35 For financing 18.4 1
11/14/2018 04:35 same 18.4 20
11/14/2018 04:35 Lender Name 18.4 37
11/14/2018 04:35 ac 18.4 3,447
11/14/2018 04:35 For financing 18.4 1
11/14/2018 04:35 AUSF.X3 18.4 11
11/14/2018 04:35 File Contacts Title C 18.4 35
11/14/2018 04:35 X3 18.4 2,250
11/14/2018 04:35 File Contacts Title C 18.4 35
11/14/2018 04:35 ADDR 18.4 482
11/14/2018 04:35 Loan 18.4 1,843
1,826 of 34,519 Fields in Encompass 18.4 contain 'Borrower N' Page 1 of 2   Next 826
Type Field ID Format Opts Description First Chng
Standard 1859 STRING Borrower Vesting Borr 1 Corp/Trust Name
Standard 1860 STRING Borrower Vesting Borr 1 Org State
Standard 1861 STRING Borrower Vesting Borr 1 Org Type
Standard 1862 STRING Borrower Vesting Borr 1 Org Tax ID
Standard 1863 STRING Borrower Vesting Seller Corp/Trust Name
Standard 1864 STRING Borrower Vesting Seller Org State
Standard 1865 STRING Borrower Vesting Seller Org Type
Standard 1866 STRING Borrower Vesting Seller Org Tax ID
Standard 1867 STRING Borrower Vesting Borr Final Vesting to Read
Standard 1869 STRING Borrower Vesting Borr AKA
Standard 1870 STRING Borrower Vesting Borr POA
Standard 1871 STRING 10 Borrower Vesting - Borrower Vesting Type 8.1 18.3
Standard 1872 STRING Borrower Vesting Borr Vesting
Standard 1874 STRING Borrower Vesting Co-Borr AKA
Standard 1875 STRING Borrower Vesting Co-Borr POA
Standard 1876 STRING 10 Borrower Vesting - Co-Borr Vesting Type 8.1 18.3
Standard 1877 STRING Borrower Vesting Co-Borr Vesting
Standard 2968 YN 2 Borrower Vesting Borr Authorized to Sign
Standard 2969 YN 2 Borrower Vesting Co-Borr Authorized to Sign
Standard 2970 STRING Borrower Vesting Borr Beneficiaries
Standard 3033 DECIMAL_2 PMI Prepaid in Cash by Borrower
Standard 3164 YN 2 Borrower Intends to Continue Chkbx
Standard 3197 DATE Borrower Intent to Continue Date
Standard 3249 STRING Borrower SSN Verification Purpose of the Transaction
Standard 3250 INTEGER Borrower SSN Verification Number of Days Valid for Consent
Standard 3251 STRING Coborrower SSN Verification Purpose of the Transaction
Standard 3252 INTEGER Coborrower SSN Verification Number of Days Valid for Consent
Standard 3323 DECIMAL_2 Income Year 1 Total Income Co-Borrower
Standard 3324 DECIMAL_2 Income Year 2 Total Income Co-Borrower
Standard 3325 DECIMAL_2 Income Year 1 Total Variance Income Co-Borrower
Standard 3326 DECIMAL_2 Income Year 2 Total Variance Income Co-Borrower
Standard 3327 DECIMAL_2 Income Year 1 Total Joint Income Borr and Co-Borrower
Standard 3328 DECIMAL_2 Income Year 2 Total Joint Income Borr and Co-Borrower
Standard 3329 DECIMAL_2 Income Year 1 Total Variance Joint Income Borr and Co-Borrower
Standard 3330 DECIMAL_2 Income Year 2 Total Variance Joint Income Borr and Co-Borrower
Standard 3515 YN 2 Borrower Can Demonstrate 12-Month Mortgage/Rental History 8.1
Standard 3530 YN 2 Lock Request Borrower Can Demonstrate 12-Month Mortgage/Rental History 8.1
Standard 3857 DATE Date the Subsequent Appraisal Provided to the Borrower 9.1
Standard 3859 DATE Date the Home Counseling Disclosure Provided to the Borrower 9.1
Standard 3866 YN 2 Coborrower SSA-89 Mortgage Service Indicator 9.1
Standard 3867 YN 2 Coborrower SSA-89 Banking Service Indicator 9.1
Standard 3868 YN 2 Coborrower SSA-89 Background Check Indicator 9.1
Standard 3869 YN 2 Coborrower SSA-89 License Requirement Indicator 9.1
Standard 3870 YN 2 Coborrower SSA-89 Credit Check Indicator 9.1
Standard 3871 YN 2 Coborrower SSA-89 Other Indicator 9.1
Standard 3984 STRING Borrower 1 eConsent Status 15.1 15.2
Standard 3985 DATE eConsent Borrower Date Accepted Pair 1 15.1 15.2
Standard 3986 STRING eConsent Borrower IP Address Pair 1 15.1 15.2
Standard 3987 STRING eConsent Borrower Source Pair 1 15.1 15.2
Standard 3988 STRING Co-Borrower 1 eConsent Status 15.1 15.2
Standard 3989 DATE eConsent Co-Borrower Date Accepted Pair 1 15.1 15.2
Standard 3990 STRING eConsent Co-Borrower IP Address Pair 1 15.1 15.2
Standard 3991 STRING eConsent Co-Borrower Source Pair 1 15.1 15.2
Standard 3992 STRING Borrower 2 eConsent Status 15.1 15.2
Standard 3993 DATE eConsent Borrower Date Accepted Pair 2 15.1 15.2
Standard 3994 STRING eConsent Borrower IP Address Pair 2 15.1 15.2
Standard 3995 STRING eConsent Borrower Source Pair 2 15.1 15.2
Standard 3996 STRING Co-Borrower 2 eConsent Status 15.1 15.2
Standard 3997 DATE eConsent Co-Borrower Date Accepted Pair 2 15.1 15.2
Standard 3998 STRING eConsent Co-Borrower IP Address Pair 2 15.1 15.2
Standard 3999 STRING eConsent Co-Borrower Source Pair 2 15.1 15.2
Standard 4000 STRING Borrower First Name
Standard 4001 STRING Borrower Middle Name
Standard 4002 STRING Borrower Last Name
Standard 4003 STRING Borrower Suffix Name
Standard 4004 STRING Co-Borrower First Name
Standard 4005 STRING Co-Borrower Middle Name
Standard 4006 STRING Co-Borrower Last Name
Standard 4007 STRING Co-Borrower Suffix Name
Standard 4008 STRING 10 Borrower Vesting Type 15.1 18.3
Standard 4009 STRING 10 Co-Borrower Vesting Type 15.1 18.3
Standard 4023 STRING Borrower 3 eConsent Status 15.1 15.2
Standard 4024 DATE eConsent Borrower Date Accepted Pair 3 15.1 15.2
Standard 4025 STRING eConsent Borrower IP Address Pair 3 15.1 15.2
Standard 4026 STRING eConsent Borrower Source Pair 3 15.1 15.2
Standard 4027 STRING Co-Borrower 3 eConsent Status 15.1 15.2
Standard 4028 DATE eConsent Co-Borrower Date Accepted Pair 3 15.1 15.2
Standard 4029 STRING eConsent Co-Borrower IP Address Pair 3 15.1 15.2
Standard 4030 STRING eConsent Co-Borrower Source Pair 3 15.1 15.2
Standard 4031 STRING Borrower 4 eConsent Status 15.1 15.2
Standard 4032 DATE eConsent Borrower Date Accepted Pair 4 15.1 15.2
Standard 4033 STRING eConsent Borrower IP Address Pair 4 15.1 15.2
Standard 4034 STRING eConsent Borrower Source Pair 4 15.1 15.2
Standard 4035 STRING Co-Borrower 4 eConsent Status 15.1 15.2
Standard 4036 DATE eConsent Co-Borrower Date Accepted Pair 4 15.1 15.2
Standard 4037 STRING eConsent Co-Borrower IP Address Pair 4 15.1 15.2
Standard 4038 STRING eConsent Co-Borrower Source Pair 4 15.1 15.2
Standard 4039 STRING Borrower 5 eConsent Status 15.1 15.2
Standard 4040 DATE eConsent Borrower Date Accepted Pair 5 15.1 15.2
Standard 4041 STRING eConsent Borrower IP Address Pair 5 15.1 15.2
Standard 4042 STRING eConsent Borrower Source Pair 5 15.1 15.2
Standard 4043 STRING Co-Borrower 5 eConsent Status 15.1 15.2
Standard 4044 DATE eConsent Co-Borrower Date Accepted Pair 5 15.1 15.2
Standard 4045 STRING eConsent Co-Borrower IP Address Pair 5 15.1 15.2
Standard 4046 STRING eConsent Co-Borrower Source Pair 5 15.1 15.2
Standard 4047 STRING Borrower 6 eConsent Status 15.1 15.2
Standard 4048 DATE eConsent Borrower Date Accepted Pair 6 15.1 15.2
Standard 4049 STRING eConsent Borrower IP Address Pair 6 15.1 15.2
Standard 4050 STRING eConsent Borrower Source Pair 6 15.1 15.2
Standard 4051 STRING Co-Borrower 6 eConsent Status 15.1 15.2
Standard 4052 DATE eConsent Co-Borrower Date Accepted Pair 6 15.1 15.2
Standard 4053 STRING eConsent Co-Borrower IP Address Pair 6 15.1 15.2
Standard 4054 STRING eConsent Co-Borrower Source Pair 6 15.1 15.2
Standard 4076 YN 2 Co-Borrower Authorized Credit Report Indicator 15.2
Standard 4078 STRING 4 Co-Borrower Credit Report Authorization Method 15.2
Standard 4087 YN 2 Trans Details Creditor Prohibits Borrower from making interest Payments 16.1
Standard 4101 STRING Borr Info BorrowerDescription 6 16.3
Standard 4102 STRING Borr Info BorrowerDescription 7 16.3
Standard 4108 DATE Borrower Consent Request Date 16.3.2
Standard 4109 DATE Co-Borrower Consent Request Date 16.3.2
Standard 4114 DATE Borrower Est Closing Date 16.3.2
Standard 4121 STRING 3 Borr Was the Ethnicity of the Borrower collected on the basis of visual observation or surname? 17.2
Standard 4122 STRING 3 Borr Was the Race of the Borrower collected on the basis of visual observation or surname? 17.2
Standard 4123 STRING 3 Borr Was the Sex of the Borrower collected on the basis of visual observation or surname? 17.2
Standard 4132 STRING 4 Co-Borr Was the Ethnicity of the Borrower collected on the basis of visual observation or surname? 17.2
Standard 4133 STRING 4 Co-Borr Was the Race of the Borrower collected on the basis of visual observation or surname? 17.2
Standard 4134 STRING 4 Borr Was the Sex of the Borrower collected on the basis of visual observation or surname? 17.2
Standard 4460 INTEGER Number of Borrower Pairs 18.2
Standard 4463 STRING 3 Rate Lock Request - Borrower/Lender Paid 18.3
Standard AUS.X100 STRING AUS Tracking - Fannie Mae - Borrower Income Name 9.1 16.1
Standard AUS.X101 STRING AUS Tracking - Fannie Mae - Borrower Income Type 9.1 16.1
Standard AUS.X102 DECIMAL_2 AUS Tracking - Fannie Mae - Borrower Income Amount 9.1 16.1
Standard AUS.X103 STRING AUS Tracking - Fannie Mae - CoBorrower Income Name 9.1 16.1
Standard AUS.X104 STRING AUS Tracking - Fannie Mae - CoBorrower Income Type 9.1 16.1
Standard AUS.X105 DECIMAL_2 AUS Tracking - Fannie Mae - CoBorrower Income Amount 9.1 16.1
Standard AUS.X106 STRING AUS Tracking - Fannie Mae - Borrower Asset Name 9.1 16.1
Standard AUS.X107 STRING AUS Tracking - Fannie Mae - Borrower Asset Type 9.1 16.1
Standard AUS.X108 STRING AUS Tracking - Fannie Mae - Borrower Institution Name 9.1 16.1
Standard AUS.X109 DECIMAL_2 AUS Tracking - Fannie Mae - Borrower Asset Amount 9.1 16.1
Standard AUS.X110 STRING AUS Tracking - Fannie Mae - CoBorrower Asset Name 9.1 16.1
Standard AUS.X111 STRING AUS Tracking - Fannie Mae - CoBorrower Asset Type 9.1 16.1
Standard AUS.X112 STRING AUS Tracking - Fannie Mae - CoBorrower Institution Name 9.1 16.1
Standard AUS.X113 DECIMAL_2 AUS Tracking - Fannie Mae - CoBorrower Asset Amount 9.1 16.1
Standard AUS.X130 STRING AUS Tracking - Freddie Mac - Selected Borrower 9.1 16.1
Standard AUS.X132 STRING AUS Tracking - Freddie Mac - Borrower Experian/FICO 9.1 16.1
Standard AUS.X133 STRING AUS Tracking - Freddie Mac - Borrower Trans Union/Empirica 9.1 16.1
Standard AUS.X134 STRING AUS Tracking - Freddie Mac - Borrower Equifax/BEACON 9.1 16.1
Standard AUS.X135 STRING AUS Tracking - Freddie Mac - CoBorrower Experian FICO 9.1 16.1
Standard AUS.X136 STRING AUS Tracking - Freddie Mac - CoBorrower Trans Union/Empirica 9.1 16.1
Standard AUS.X137 STRING AUS Tracking - Freddie Mac - CoBorrower Equifax BEACON 9.1 16.1
Standard AUS.X43 STRING AUS Tracking - Fannie Mae - Borrower Name 9.1 16.1
Standard AUS.X45 STRING AUS Tracking - Fannie Mae - Coborrower Name 9.1 16.1
Standard AUS.X84 STRING AUS Tracking - Fannie Mae - Borrower Type 9.1 16.1
Standard AUS.X88 STRING AUS Tracking - Fannie Mae - Borrower Type 2 9.1 16.1
Standard AUS.X92 STRING AUS Tracking - Fannie Mae - Borrower Score Name 9.1 16.1
Standard AUS.X93 STRING AUS Tracking - Fannie Mae - Borrower Credit Score 1 9.1 16.1
Standard AUS.X94 STRING AUS Tracking - Fannie Mae - Borrower Credit Score 2 9.1 16.1
Standard AUS.X95 STRING AUS Tracking - Fannie Mae - Borrower Credit Score 3 9.1 16.1
Standard AUS.X96 STRING AUS Tracking - Fannie Mae - CoBorrower Score Name 2 9.1 16.1
Standard AUS.X97 STRING AUS Tracking - Fannie Mae - CoBorrower Credit Score 1 9.1 16.1
Standard AUS.X98 STRING AUS Tracking - Fannie Mae - CoBorrower Credit Score 2 9.1 16.1
Standard AUS.X99 STRING AUS Tracking - Fannie Mae - CoBorrower Credit Score 3 9.1 16.1
Virtual AUSTRACKING.AUS.X100 STRING Last Snapshot - AUS Tracking - Fannie Mae - Borrower Income Name 15.1 15.2 16.1
Virtual AUSTRACKING.AUS.X101 STRING Last Snapshot - AUS Tracking - Fannie Mae - Borrower Income Type 15.1 15.2 16.1
Virtual AUSTRACKING.AUS.X102 DECIMAL_2 Last Snapshot - AUS Tracking - Fannie Mae - Borrower Income Amount 15.1 15.2 16.1
Virtual AUSTRACKING.AUS.X103 STRING Last Snapshot - AUS Tracking - Fannie Mae - CoBorrower Income Name 15.1 15.2 16.1
Virtual AUSTRACKING.AUS.X104 STRING Last Snapshot - AUS Tracking - Fannie Mae - CoBorrower Income Type 15.1 15.2 16.1
Virtual AUSTRACKING.AUS.X105 DECIMAL_2 Last Snapshot - AUS Tracking - Fannie Mae - CoBorrower Income Amount 15.1 15.2 16.1
Virtual AUSTRACKING.AUS.X106 STRING Last Snapshot - AUS Tracking - Fannie Mae - Borrower Asset Name 15.1 15.2 16.1
Virtual AUSTRACKING.AUS.X107 STRING Last Snapshot - AUS Tracking - Fannie Mae - Borrower Asset Type 15.1 15.2 16.1
Virtual AUSTRACKING.AUS.X108 STRING Last Snapshot - AUS Tracking - Fannie Mae - Borrower Institution Name 15.1 15.2 16.1
Virtual AUSTRACKING.AUS.X109 DECIMAL_2 Last Snapshot - AUS Tracking - Fannie Mae - Borrower Asset Amount 15.1 15.2 16.1
Virtual AUSTRACKING.AUS.X110 STRING Last Snapshot - AUS Tracking - Fannie Mae - CoBorrower Asset Name 15.1 15.2 16.1
Virtual AUSTRACKING.AUS.X111 STRING Last Snapshot - AUS Tracking - Fannie Mae - CoBorrower Asset Type 15.1 15.2 16.1
Virtual AUSTRACKING.AUS.X112 STRING Last Snapshot - AUS Tracking - Fannie Mae - CoBorrower Institution Name 15.1 15.2 16.1
Virtual AUSTRACKING.AUS.X113 DECIMAL_2 Last Snapshot - AUS Tracking - Fannie Mae - CoBorrower Asset Amount 15.1 15.2 16.1
Virtual AUSTRACKING.AUS.X130 STRING Last Snapshot - AUS Tracking - Freddie Mac - Selected Borrower 15.1 15.2 16.1
Virtual AUSTRACKING.AUS.X132 STRING Last Snapshot - AUS Tracking - Freddie Mac - Borrower Experian/FICO 15.1 15.2 16.1
Virtual AUSTRACKING.AUS.X133 STRING Last Snapshot - AUS Tracking - Freddie Mac - Borrower Trans Union/Empirica 15.1 15.2 16.1
Virtual AUSTRACKING.AUS.X134 STRING Last Snapshot - AUS Tracking - Freddie Mac - Borrower Equifax/BEACON 15.1 15.2 16.1
Virtual AUSTRACKING.AUS.X135 STRING Last Snapshot - AUS Tracking - Freddie Mac - CoBorrower Experian FICO 15.1 15.2 16.1
Virtual AUSTRACKING.AUS.X136 STRING Last Snapshot - AUS Tracking - Freddie Mac - CoBorrower Trans Union/Empirica 15.1 15.2 16.1
Virtual AUSTRACKING.AUS.X137 STRING Last Snapshot - AUS Tracking - Freddie Mac - CoBorrower Equifax BEACON 15.1 15.2 16.1
Virtual AUSTRACKING.AUS.X43 STRING Last Snapshot - AUS Tracking - Fannie Mae - Borrower Name 15.1 15.2 16.1
Virtual AUSTRACKING.AUS.X45 STRING Last Snapshot - AUS Tracking - Fannie Mae - Coborrower Name 15.1 15.2 16.1
Virtual AUSTRACKING.AUS.X84 STRING Last Snapshot - AUS Tracking - Fannie Mae - Borrower Type 15.1 15.2 16.1
Virtual AUSTRACKING.AUS.X88 STRING Last Snapshot - AUS Tracking - Fannie Mae - Borrower Type 2 15.1 15.2 16.1
Virtual AUSTRACKING.AUS.X92 STRING Last Snapshot - AUS Tracking - Fannie Mae - Borrower Score Name 15.1 15.2 16.1
Virtual AUSTRACKING.AUS.X93 STRING Last Snapshot - AUS Tracking - Fannie Mae - Borrower Credit Score 1 15.1 15.2 16.1
Virtual AUSTRACKING.AUS.X94 STRING Last Snapshot - AUS Tracking - Fannie Mae - Borrower Credit Score 2 15.1 15.2 16.1
Virtual AUSTRACKING.AUS.X95 STRING Last Snapshot - AUS Tracking - Fannie Mae - Borrower Credit Score 3 15.1 15.2 16.1
Virtual AUSTRACKING.AUS.X96 STRING Last Snapshot - AUS Tracking - Fannie Mae - CoBorrower Score Name 2 15.1 15.2 16.1
Virtual AUSTRACKING.AUS.X97 STRING Last Snapshot - AUS Tracking - Fannie Mae - CoBorrower Credit Score 1 15.1 15.2 16.1
Virtual AUSTRACKING.AUS.X98 STRING Last Snapshot - AUS Tracking - Fannie Mae - CoBorrower Credit Score 2 15.1 15.2 16.1
Virtual AUSTRACKING.AUS.X99 STRING Last Snapshot - AUS Tracking - Fannie Mae - CoBorrower Credit Score 3 15.1 15.2 16.1
Standard BORR.OCCUPANCYINTENT STRING 3 Borrower Vesting Borr POA Occupancy Intent 9.1
Standard BORR.POASIGTXT STRING Borrower Vesting Borr POA Signature Text 8.1
Standard BORR.TRUSTEEOF STRING 2 Borrower Vesting Borr Trustee Of 8.1
Standard BR0013 STRING Borr Residence Verif is For Borrower
Standard CD2.XBCCAC DECIMAL_2 Closing disclosure - Borrower Paid Closing Cost At Closing 15.1
Standard CD2.XBCCBC DECIMAL_2 Closing disclosure - Borrower Paid Closing Cost Before Closing 15.1
Standard CD2.XLCAC DECIMAL_2 Closing disclosure - Total Borrower Paid At Closing 15.1
Standard CD2.XLCBC DECIMAL_2 Closing disclosure - Total Borrower Paid Before Closing 15.1
Standard CD2.XSTB DECIMAL_2 Closing disclosure - B. Services Borrower Did Not Shop For 15.1
Standard CD2.XSTC DECIMAL_2 Closing disclosure - C. Services Borrower Did Shop For 15.1
Standard CD2.XSTJ DECIMAL_2 Closing disclosure - J. Total Closing Costs (BORROWER Paid) 15.1
Standard CD3.X107 DECIMAL_2 STD Final Fund For Borrower 15.1
Standard CD3.X115 STRING STD Funds for Borrower Did Change Col 15.1
Standard CD3.X127 STRING 2 STD Funds For Borrower IncDec Remark 15.1
Standard CD3.X137 YN 2 Exclude Borrower Closing Costs 15.2
Standard CD3.X139 STRING Closing Disclosure Page 3 - Due from Borrower at Closing (line 4) - Fee Description - Line 1 16.2
Standard CD3.X140 DECIMAL_2 Closing Disclosure Page 3 - Due from Borrower at Closing (line 4) - Fee Amount - Line 1 16.2
Standard CD3.X141 STRING Closing Disclosure Page 3 - Due from Borrower at Closing (line 4) - Fee Paid to - Line 1 16.2
Standard CD3.X142 STRING 21 Closing Disclosure Page 3 - Due from Borrower at Closing (line 4) - Fee Account Type - Line 1 16.2
Standard CD3.X143 STRING Closing Disclosure Page 3 - Due from Borrower at Closing (line 4) - Fee Description - Line 2 16.2
Standard CD3.X144 DECIMAL_2 Closing Disclosure Page 3 - Due from Borrower at Closing (line 4) - Fee Amount - Line 2 16.2
Standard CD3.X145 STRING Closing Disclosure Page 3 - Due from Borrower at Closing (line 4) - Fee Paid to - Line 2 16.2
Standard CD3.X146 STRING 21 Closing Disclosure Page 3 - Due from Borrower at Closing (line 4) - Fee Account Type - Line 2 16.2
Standard CD3.X147 STRING Closing Disclosure Page 3 - Due from Borrower at Closing (line 4) - Fee Description - Line 3 16.2
Standard CD3.X148 DECIMAL_2 Closing Disclosure Page 3 - Due from Borrower at Closing (line 4) - Fee Amount - Line 3 16.2
Standard CD3.X149 STRING Closing Disclosure Page 3 - Due from Borrower at Closing (line 4) - Fee Paid to - Line 3 16.2
Standard CD3.X150 STRING 21 Closing Disclosure Page 3 - Due from Borrower at Closing (line 4) - Fee Account Type - Line 3 16.2
Standard CD3.X151 STRING Closing Disclosure Page 3 - Due from Borrower at Closing (line 4) - Fee Description - Line 4 16.2
Standard CD3.X152 DECIMAL_2 Closing Disclosure Page 3 - Due from Borrower at Closing (line 4) - Fee Amount - Line 4 16.2
Standard CD3.X153 STRING Closing Disclosure Page 3 - Due from Borrower at Closing (line 4) - Fee Paid to - Line 4 16.2
Standard CD3.X154 STRING 21 Closing Disclosure Page 3 - Due from Borrower at Closing (line 4) - Fee Account Type - Line 4 16.2
Standard CD3.X1540 YN 2 Closing Disclosure Page 3 - Section L - Paid Already by or on Behalf of Borrower at Closing (line 4) - Fee POC - Line 1 17.3
Standard CD3.X1541 YN 2 Closing Disclosure Page 3 - Section L - Paid Already by or on Behalf of Borrower at Closing (line 4) - Fee POC - Line 2 17.3
Standard CD3.X155 STRING Closing Disclosure Page 3 - Due from Borrower at Closing (line 4) - Fee Description - Line 5 16.2
Standard CD3.X156 DECIMAL_2 Closing Disclosure Page 3 - Due from Borrower at Closing (line 4) - Fee Amount - Line 5 16.2
Standard CD3.X157 STRING Closing Disclosure Page 3 - Due from Borrower at Closing (line 4) - Fee Paid to - Line 5 16.2
Standard CD3.X158 STRING 21 Closing Disclosure Page 3 - Due from Borrower at Closing (line 4) - Fee Account Type - Line 5 16.2
Standard CD3.X159 STRING Closing Disclosure Page 3 - Due from Borrower at Closing (line 4) - Fee Description - Line 6 16.2
Standard CD3.X160 DECIMAL_2 Closing Disclosure Page 3 - Due from Borrower at Closing (line 4) - Fee Amount - Line 6 16.2
Standard CD3.X161 STRING Closing Disclosure Page 3 - Due from Borrower at Closing (line 4) - Fee Paid to - Line 6 16.2
Standard CD3.X162 STRING 21 Closing Disclosure Page 3 - Due from Borrower at Closing (line 4) - Fee Account Type - Line 6 16.2
Standard CD3.X163 STRING Closing Disclosure Page 3 - Due from Borrower at Closing (line 4) - Fee Description - Line 7 16.2
Standard CD3.X164 DECIMAL_2 Closing Disclosure Page 3 - Due from Borrower at Closing (line 4) - Fee Amount - Line 7 16.2
Standard CD3.X165 STRING Closing Disclosure Page 3 - Due from Borrower at Closing (line 4) - Fee Paid to - Line 7 16.2
Standard CD3.X166 STRING 21 Closing Disclosure Page 3 - Due from Borrower at Closing (line 4) - Fee Account Type - Line 7 16.2
Standard CD3.X167 STRING Closing Disclosure Page 3 - Due from Borrower at Closing (line 4) - Fee Description - Line 8 16.2
Standard CD3.X168 DECIMAL_2 Closing Disclosure Page 3 - Due from Borrower at Closing (line 4) - Fee Amount - Line 8 16.2
Standard CD3.X169 STRING Closing Disclosure Page 3 - Due from Borrower at Closing (line 4) - Fee Paid to - Line 8 16.2
Standard CD3.X170 STRING 21 Closing Disclosure Page 3 - Due from Borrower at Closing (line 4) - Fee Account Type - Line 8 16.2
Standard CD3.X171 STRING Closing Disclosure Page 3 - Due from Borrower at Closing (line 4) - Fee Description - Line 9 16.2
Standard CD3.X172 DECIMAL_2 Closing Disclosure Page 3 - Due from Borrower at Closing (line 4) - Fee Amount - Line 9 16.2
Standard CD3.X173 STRING Closing Disclosure Page 3 - Due from Borrower at Closing (line 4) - Fee Paid to - Line 9 16.2
Standard CD3.X174 STRING 21 Closing Disclosure Page 3 - Due from Borrower at Closing (line 4) - Fee Account Type - Line 9 16.2
Standard CD3.X175 STRING Closing Disclosure Page 3 - Due from Borrower at Closing (line 4) - Fee Description - Line 10 16.2
Standard CD3.X176 DECIMAL_2 Closing Disclosure Page 3 - Due from Borrower at Closing (line 4) - Fee Amount - Line 10 16.2
Standard CD3.X177 STRING Closing Disclosure Page 3 - Due from Borrower at Closing (line 4) - Fee Paid to - Line 10 16.2
Standard CD3.X178 STRING 21 Closing Disclosure Page 3 - Due from Borrower at Closing (line 4) - Fee Account Type - Line 10 16.2
Standard CD3.X179 STRING Closing Disclosure Page 3 - Due from Borrower at Closing (line 4) - Fee Description - Line 11 16.2
Standard CD3.X180 DECIMAL_2 Closing Disclosure Page 3 - Due from Borrower at Closing (line 4) - Fee Amount - Line 11 16.2
Standard CD3.X181 STRING Closing Disclosure Page 3 - Due from Borrower at Closing (line 4) - Fee Paid to - Line 11 16.2
Standard CD3.X182 STRING 21 Closing Disclosure Page 3 - Due from Borrower at Closing (line 4) - Fee Account Type - Line 11 16.2
Standard CD3.X183 STRING Closing Disclosure Page 3 - Due from Borrower at Closing (line 4) - Fee Description - Line 12 16.2
Standard CD3.X184 DECIMAL_2 Closing Disclosure Page 3 - Due from Borrower at Closing (line 4) - Fee Amount - Line 12 16.2
Standard CD3.X185 STRING Closing Disclosure Page 3 - Due from Borrower at Closing (line 4) - Fee Paid to - Line 12 16.2
Standard CD3.X186 STRING 21 Closing Disclosure Page 3 - Due from Borrower at Closing (line 4) - Fee Account Type - Line 12 16.2
Standard CD3.X187 STRING Closing Disclosure Page 3 - Due from Borrower at Closing (line 4) - Fee Description - Line 13 16.2
Standard CD3.X188 DECIMAL_2 Closing Disclosure Page 3 - Due from Borrower at Closing (line 4) - Fee Amount - Line 13 16.2
Standard CD3.X189 STRING Closing Disclosure Page 3 - Due from Borrower at Closing (line 4) - Fee Paid to - Line 13 16.2
Standard CD3.X190 STRING 21 Closing Disclosure Page 3 - Due from Borrower at Closing (line 4) - Fee Account Type - Line 13 16.2
Standard CD3.X191 STRING Closing Disclosure Page 3 - Due from Borrower at Closing (line 4) - Fee Description - Line 14 16.2
Standard CD3.X192 DECIMAL_2 Closing Disclosure Page 3 - Due from Borrower at Closing (line 4) - Fee Amount - Line 14 16.2
Standard CD3.X193 STRING Closing Disclosure Page 3 - Due from Borrower at Closing (line 4) - Fee Paid to - Line 14 16.2
Standard CD3.X194 STRING 21 Closing Disclosure Page 3 - Due from Borrower at Closing (line 4) - Fee Account Type - Line 14 16.2
Standard CD3.X195 STRING Closing Disclosure Page 3 - Due from Borrower at Closing (line 4) - Fee Description - Line 15 16.2
Standard CD3.X196 DECIMAL_2 Closing Disclosure Page 3 - Due from Borrower at Closing (line 4) - Fee Amount - Line 15 16.2
Standard CD3.X197 STRING Closing Disclosure Page 3 - Due from Borrower at Closing (line 4) - Fee Paid to - Line 15 16.2
Standard CD3.X198 STRING 21 Closing Disclosure Page 3 - Due from Borrower at Closing (line 4) - Fee Account Type - Line 15 16.2
Standard CD3.X199 STRING Closing Disclosure Page 3 - Due from Borrower at Closing (line 4) - Fee Description - Line 16 16.2
Standard CD3.X200 DECIMAL_2 Closing Disclosure Page 3 - Due from Borrower at Closing (line 4) - Fee Amount - Line 16 16.2
Standard CD3.X201 STRING Closing Disclosure Page 3 - Due from Borrower at Closing (line 4) - Fee Paid to - Line 16 16.2
Standard CD3.X202 STRING 21 Closing Disclosure Page 3 - Due from Borrower at Closing (line 4) - Fee Account Type - Line 16 16.2
Standard CD3.X203 STRING Closing Disclosure Page 3 - Due from Borrower at Closing (line 4) - Fee Description - Line 17 16.2
Standard CD3.X204 DECIMAL_2 Closing Disclosure Page 3 - Due from Borrower at Closing (line 4) - Fee Amount - Line 17 16.2
Standard CD3.X205 STRING Closing Disclosure Page 3 - Due from Borrower at Closing (line 4) - Fee Paid to - Line 17 16.2
Standard CD3.X206 STRING 21 Closing Disclosure Page 3 - Due from Borrower at Closing (line 4) - Fee Account Type - Line 17 16.2
Standard CD3.X207 STRING Closing Disclosure Page 3 - Due from Borrower at Closing (line 4) - Fee Description - Line 18 16.2
Standard CD3.X208 DECIMAL_2 Closing Disclosure Page 3 - Due from Borrower at Closing (line 4) - Fee Amount - Line 18 16.2
Standard CD3.X209 STRING Closing Disclosure Page 3 - Due from Borrower at Closing (line 4) - Fee Paid to - Line 18 16.2
Standard CD3.X21 DECIMAL_2 Total Due from Borrower At Closing 15.1
Standard CD3.X210 STRING 21 Closing Disclosure Page 3 - Due from Borrower at Closing (line 4) - Fee Account Type - Line 18 16.2
Standard CD3.X211 STRING Closing Disclosure Page 3 - Due from Borrower at Closing (line 4) - Fee Description - Line 19 16.2
Standard CD3.X212 DECIMAL_2 Closing Disclosure Page 3 - Due from Borrower at Closing (line 4) - Fee Amount - Line 19 16.2
Standard CD3.X213 STRING Closing Disclosure Page 3 - Due from Borrower at Closing (line 4) - Fee Paid to - Line 19 16.2
Standard CD3.X214 STRING 21 Closing Disclosure Page 3 - Due from Borrower at Closing (line 4) - Fee Account Type - Line 19 16.2
Standard CD3.X215 STRING Closing Disclosure Page 3 - Due from Borrower at Closing (line 4) - Fee Description - Line 20 16.2
Standard CD3.X216 DECIMAL_2 Closing Disclosure Page 3 - Due from Borrower at Closing (line 4) - Fee Amount - Line 20 16.2
Standard CD3.X217 STRING Closing Disclosure Page 3 - Due from Borrower at Closing (line 4) - Fee Paid to - Line 20 16.2
Standard CD3.X218 STRING 21 Closing Disclosure Page 3 - Due from Borrower at Closing (line 4) - Fee Account Type - Line 20 16.2
Standard CD3.X219 STRING Closing Disclosure Page 3 - Due from Borrower at Closing (line 4) - Fee Description - Line 21 16.2
Standard CD3.X220 DECIMAL_2 Closing Disclosure Page 3 - Due from Borrower at Closing (line 4) - Fee Amount - Line 21 16.2
Standard CD3.X221 STRING Closing Disclosure Page 3 - Due from Borrower at Closing (line 4) - Fee Paid to - Line 21 16.2
Standard CD3.X222 STRING 21 Closing Disclosure Page 3 - Due from Borrower at Closing (line 4) - Fee Account Type - Line 21 16.2
Standard CD3.X223 STRING Closing Disclosure Page 3 - Due from Borrower at Closing (line 5) - Fee Description - Line 1 16.2
Standard CD3.X224 DECIMAL_2 Closing Disclosure Page 3 - Due from Borrower at Closing (line 5) - Fee Amount - Line 1 16.2
Standard CD3.X225 YN 2 Closing Disclosure Page 3 - Due from Borrower at Closing (line 5) - Fee POC - Line 1 16.2
Standard CD3.X226 STRING 6 Closing Disclosure Page 3 - Due from Borrower at Closing (line 5) - Fee Account Type - Line 1 16.2
Standard CD3.X227 STRING Closing Disclosure Page 3 - Due from Borrower at Closing (line 6) - Fee Description - Line 1 16.2
Standard CD3.X228 DECIMAL_2 Closing Disclosure Page 3 - Due from Borrower at Closing (line 6) - Fee Amount - Line 1 16.2
Standard CD3.X229 YN 2 Closing Disclosure Page 3 - Due from Borrower at Closing (line 6) - Fee POC - Line 1 16.2
Standard CD3.X230 STRING 6 Closing Disclosure Page 3 - Due from Borrower at Closing (line 6) - Fee Account Type - Line 1 16.2
Standard CD3.X231 STRING Closing Disclosure Page 3 - Due from Borrower at Closing (line 7) - Fee Description - Line 1 16.2
Standard CD3.X232 DECIMAL_2 Closing Disclosure Page 3 - Due from Borrower at Closing (line 7) - Fee Amount - Line 1 16.2
Standard CD3.X233 YN 2 Closing Disclosure Page 3 - Due from Borrower at Closing (line 7) - Fee POC - Line 1 16.2
Standard CD3.X234 STRING 6 Closing Disclosure Page 3 - Due from Borrower at Closing (line 7) - Fee Account Type - Line 1 16.2
Standard CD3.X235 STRING Closing Disclosure Page 3 - Due from Borrower at Closing (line 7) - Fee Description - Line 2 16.2
Standard CD3.X236 DECIMAL_2 Closing Disclosure Page 3 - Due from Borrower at Closing (line 7) - Fee Amount - Line 2 16.2
Standard CD3.X237 YN 2 Closing Disclosure Page 3 - Due from Borrower at Closing (line 7) - Fee POC - Line 2 16.2
Standard CD3.X238 STRING 6 Closing Disclosure Page 3 - Due from Borrower at Closing (line 7) - Fee Account Type - Line 2 16.2
Standard CD3.X239 STRING Closing Disclosure Page 3 - Due from Borrower at Closing (line 7) - Fee Description - Line 3 16.2
Standard CD3.X240 DECIMAL_2 Closing Disclosure Page 3 - Due from Borrower at Closing (line 7) - Fee Amount - Line 3 16.2
Standard CD3.X241 YN 2 Closing Disclosure Page 3 - Due from Borrower at Closing (line 7) - Fee POC - Line 3 16.2
Standard CD3.X242 STRING 6 Closing Disclosure Page 3 - Due from Borrower at Closing (line 7) - Fee Account Type - Line 3 16.2
Standard CD3.X243 STRING Closing Disclosure Page 3 - Due from Borrower at Closing (line 7) - Fee Description - Line 4 16.2
Standard CD3.X244 DECIMAL_2 Closing Disclosure Page 3 - Due from Borrower at Closing (line 7) - Fee Amount - Line 4 16.2
Standard CD3.X245 YN 2 Closing Disclosure Page 3 - Due from Borrower at Closing (line 7) - Fee POC - Line 4 16.2
Standard CD3.X246 STRING 6 Closing Disclosure Page 3 - Due from Borrower at Closing (line 7) - Fee Account Type - Line 4 16.2
Standard CD3.X247 STRING Closing Disclosure Page 3 - Due from Borrower at Closing (line 7) - Fee Description - Line 5 16.2
Standard CD3.X248 DECIMAL_2 Closing Disclosure Page 3 - Due from Borrower at Closing (line 7) - Fee Amount - Line 5 16.2
Standard CD3.X249 YN 2 Closing Disclosure Page 3 - Due from Borrower at Closing (line 7) - Fee POC - Line 5 16.2
Standard CD3.X250 STRING 6 Closing Disclosure Page 3 - Due from Borrower at Closing (line 7) - Fee Account Type - Line 5 16.2
Standard CD3.X251 STRING Closing Disclosure Page 3 - Due from Borrower at Closing (line 7) - Fee Description - Line 6 16.2
Standard CD3.X252 DECIMAL_2 Closing Disclosure Page 3 - Due from Borrower at Closing (line 7) - Fee Amount - Line 6 16.2
Standard CD3.X253 YN 2 Closing Disclosure Page 3 - Due from Borrower at Closing (line 7) - Fee POC - Line 6 16.2
Standard CD3.X254 STRING 6 Closing Disclosure Page 3 - Due from Borrower at Closing (line 7) - Fee Account Type - Line 6 16.2
Standard CD3.X257 STRING 3 Closing Disclosure Page 3 - Due from Borrower at Closing (line 8) - Fee Account Type 16.2
Standard CD3.X260 STRING 2 Closing Disclosure Page 3 - Due from Borrower at Closing (line 9) - Fee Account Type 16.2
Standard CD3.X263 STRING 3 Closing Disclosure Page 3 - Due from Borrower at Closing (line 10) - Fee Account Type 16.2
Standard CD3.X264 DATE Closing Disclosure Page 3 - Due from Borrower at Closing (line 11) - Fee Date From 16.2
Standard CD3.X265 DATE Closing Disclosure Page 3 - Due from Borrower at Closing (line 11) - Fee Date To 16.2
Standard CD3.X266 STRING 26 Closing Disclosure Page 3 - Due from Borrower at Closing (line 11) - Fee Account Type 16.2 17.4
Standard CD3.X267 DATE Closing Disclosure Page 3 - Due from Borrower at Closing (line 12) - Fee Date From 16.2
Standard CD3.X268 DATE Closing Disclosure Page 3 - Due from Borrower at Closing (line 12) - Fee Date To 16.2
Standard CD3.X269 STRING 26 Closing Disclosure Page 3 - Due from Borrower at Closing (line 12) - Fee Account Type 16.2 17.4
Standard CD3.X270 DATE Closing Disclosure Page 3 - Due from Borrower at Closing (line 13) - Fee Date From 16.2
Standard CD3.X271 DATE Closing Disclosure Page 3 - Due from Borrower at Closing (line 13) - Fee Date To 16.2
Standard CD3.X272 STRING 26 Closing Disclosure Page 3 - Due from Borrower at Closing (line 13) - Fee Account Type 16.2 17.4
Standard CD3.X273 DATE Closing Disclosure Page 3 - Due from Borrower at Closing (line 14) - Fee Date From 16.2
Standard CD3.X274 DATE Closing Disclosure Page 3 - Due from Borrower at Closing (line 14) - Fee Date To 16.2
Standard CD3.X275 STRING 26 Closing Disclosure Page 3 - Due from Borrower at Closing (line 14) - Fee Account Type 16.2 17.4
Standard CD3.X276 DATE Closing Disclosure Page 3 - Due from Borrower at Closing (line 15) - Fee Date From 16.2
Standard CD3.X277 DATE Closing Disclosure Page 3 - Due from Borrower at Closing (line 15) - Fee Date To 16.2
Standard CD3.X278 STRING 26 Closing Disclosure Page 3 - Due from Borrower at Closing (line 15) - Fee Account Type 16.2 17.4
Standard CD3.X279 STRING Closing Disclosure Page 3 - Section L - Paid Already by or on Behalf of Borrower at Closing (Line 4) - Fee Description - Line 1 16.2
Standard CD3.X280 DECIMAL_2 Closing Disclosure Page 3 - Section L - Paid Already by or on Behalf of Borrower at Closing (Line 4) - Fee Amount - Line 1 16.2
Standard CD3.X281 STRING 2 Closing Disclosure Page 3 - Section L - Paid Already by or on Behalf of Borrower at Closing (Line 4) - Fee Account Type - Line 1 16.2
Standard CD3.X282 STRING Closing Disclosure Page 3 - Section L - Paid Already by or on Behalf of Borrower at Closing (Line 4) - Fee Description - Line 2 16.2
Standard CD3.X283 DECIMAL_2 Closing Disclosure Page 3 - Section L - Paid Already by or on Behalf of Borrower at Closing (Line 4) - Fee Amount - Line 2 16.2
Standard CD3.X284 STRING 2 Closing Disclosure Page 3 - Section L - Paid Already by or on Behalf of Borrower at Closing (Line 4) - Fee Account Type - Line 2 16.2
Standard CD3.X285 STRING Closing Disclosure Page 3 - Section L - Paid Already by or on Behalf of Borrower at Closing (line 6) - Fee Description - Line 1 16.2
Standard CD3.X286 DECIMAL_2 Closing Disclosure Page 3 - Section L - Paid Already by or on Behalf of Borrower at Closing (line 6) - Fee Amount - Line 1 16.2
Standard CD3.X287 STRING Closing Disclosure Page 3 - Section L - Paid Already by or on Behalf of Borrower at Closing (line 6) - Fee Paid to - Line 1 16.2
Standard CD3.X288 YN 2 Closing Disclosure Page 3 - Section L - Paid Already by or on Behalf of Borrower at Closing (line 6) - Fee POC - Line 1 16.2
Standard CD3.X289 STRING 4 Closing Disclosure Page 3 - Section L - Paid Already by or on Behalf of Borrower at Closing (line 6) - Fee Account Type - Line 1 16.2
Standard CD3.X290 STRING Closing Disclosure Page 3 - Section L - Paid Already by or on Behalf of Borrower at Closing (line 7) - Fee Description - Line 1 16.2
Standard CD3.X291 DECIMAL_2 Closing Disclosure Page 3 - Section L - Paid Already by or on Behalf of Borrower at Closing (line 7) - Fee Amount - Line 1 16.2
Standard CD3.X292 STRING Closing Disclosure Page 3 - Section L - Paid Already by or on Behalf of Borrower at Closing (line 7) - Fee Paid to - Line 1 16.2
Standard CD3.X293 YN 2 Closing Disclosure Page 3 - Section L - Paid Already by or on Behalf of Borrower at Closing (line 7) - Fee POC - Line 1 16.2
Standard CD3.X294 STRING 4 Closing Disclosure Page 3 - Section L - Paid Already by or on Behalf of Borrower at Closing (line 7) - Fee Account Type - Line 1 16.2
Standard CD3.X295 STRING Closing Disclosure Page 3 - Section L - Paid Already by or on Behalf of Borrower at Closing (line 7) - Fee Description - Line 2 16.2
Standard CD3.X296 DECIMAL_2 Closing Disclosure Page 3 - Section L - Paid Already by or on Behalf of Borrower at Closing (line 7) - Fee Amount - Line 2 16.2
Standard CD3.X297 STRING Closing Disclosure Page 3 - Section L - Paid Already by or on Behalf of Borrower at Closing (line 7) - Fee Paid to - Line 2 16.2
Standard CD3.X298 YN 2 Closing Disclosure Page 3 - Section L - Paid Already by or on Behalf of Borrower at Closing (line 7) - Fee POC - Line 2 16.2
Standard CD3.X299 STRING 4 Closing Disclosure Page 3 - Section L - Paid Already by or on Behalf of Borrower at Closing (line 7) - Fee Account Type - Line 2 16.2
Standard CD3.X300 STRING Closing Disclosure Page 3 - Section L - Paid Already by or on Behalf of Borrower at Closing (line 7) - Fee Description - Line 3 16.2
Standard CD3.X301 DECIMAL_2 Closing Disclosure Page 3 - Section L - Paid Already by or on Behalf of Borrower at Closing (line 7) - Fee Amount - Line 3 16.2
Standard CD3.X302 STRING Closing Disclosure Page 3 - Section L - Paid Already by or on Behalf of Borrower at Closing (line 7) - Fee Paid to - Line 3 16.2
Standard CD3.X303 YN 2 Closing Disclosure Page 3 - Section L - Paid Already by or on Behalf of Borrower at Closing (line 7) - Fee POC - Line 3 16.2
Standard CD3.X304 STRING 4 Closing Disclosure Page 3 - Section L - Paid Already by or on Behalf of Borrower at Closing (line 7) - Fee Account Type - Line 3 16.2
Standard CD3.X305 STRING Closing Disclosure Page 3 - Section L - Paid Already by or on Behalf of Borrower at Closing (line 7) - Fee Description - Line 4 16.2
Standard CD3.X306 DECIMAL_2 Closing Disclosure Page 3 - Section L - Paid Already by or on Behalf of Borrower at Closing (line 7) - Fee Amount - Line 4 16.2
Standard CD3.X307 STRING Closing Disclosure Page 3 - Section L - Paid Already by or on Behalf of Borrower at Closing (line 7) - Fee Paid to - Line 4 16.2
Standard CD3.X308 YN 2 Closing Disclosure Page 3 - Section L - Paid Already by or on Behalf of Borrower at Closing (line 7) - Fee POC - Line 4 16.2
Standard CD3.X309 STRING 4 Closing Disclosure Page 3 - Section L - Paid Already by or on Behalf of Borrower at Closing (line 7) - Fee Account Type - Line 4 16.2
Standard CD3.X310 STRING Closing Disclosure Page 3 - Section L - Paid Already by or on Behalf of Borrower at Closing (line 8) - Fee Description - Line 1 16.2
Standard CD3.X311 DECIMAL_2 Closing Disclosure Page 3 - Section L - Paid Already by or on Behalf of Borrower at Closing (line 8) - Fee Amount - Line 1 16.2
Standard CD3.X312 YN 2 Closing Disclosure Page 3 - Section L - Paid Already by or on Behalf of Borrower at Closing (line 8) - Fee POC - Line 1 16.2
Standard CD3.X313 STRING 4 Closing Disclosure Page 3 - Section L - Paid Already by or on Behalf of Borrower at Closing (line 8) - Fee Account Type - Line 1 16.2
Standard CD3.X314 STRING Closing Disclosure Page 3 - Section L - Paid Already by or on Behalf of Borrower at Closing (line 9) - Fee Description - Line 1 16.2
Standard CD3.X315 DECIMAL_2 Closing Disclosure Page 3 - Section L - Paid Already by or on Behalf of Borrower at Closing (line 9) - Fee Amount - Line 1 16.2
Standard CD3.X316 YN 2 Closing Disclosure Page 3 - Section L - Paid Already by or on Behalf of Borrower at Closing (line 9) - Fee POC - Line 1 16.2
Standard CD3.X317 STRING 4 Closing Disclosure Page 3 - Section L - Paid Already by or on Behalf of Borrower at Closing (line 9) - Fee Account Type - Line 1 16.2
Standard CD3.X318 STRING Closing Disclosure Page 3 - Section L - Paid Already by or on Behalf of Borrower at Closing (line 10) - Fee Description - Line 1 16.2
Standard CD3.X319 DECIMAL_2 Closing Disclosure Page 3 - Section L - Paid Already by or on Behalf of Borrower at Closing (line 10) - Fee Amount - Line 1 16.2
Standard CD3.X320 YN 2 Closing Disclosure Page 3 - Section L - Paid Already by or on Behalf of Borrower at Closing (line 10) - Fee POC - Line 1 16.2
Standard CD3.X321 STRING 4 Closing Disclosure Page 3 - Section L - Paid Already by or on Behalf of Borrower at Closing (line 10) - Fee Account Type - Line 1 16.2
Standard CD3.X322 STRING Closing Disclosure Page 3 - Section L - Paid Already by or on Behalf of Borrower at Closing (line 11) - Fee Description - Line 1 16.2
Standard CD3.X323 DECIMAL_2 Closing Disclosure Page 3 - Section L - Paid Already by or on Behalf of Borrower at Closing (line 11) - Fee Amount - Line 1 16.2
Standard CD3.X324 YN 2 Closing Disclosure Page 3 - Section L - Paid Already by or on Behalf of Borrower at Closing (line 11) - Fee POC - Line 1 16.2
Standard CD3.X325 STRING 4 Closing Disclosure Page 3 - Section L - Paid Already by or on Behalf of Borrower at Closing (line 11) - Fee Account Type - Line 1 16.2
Standard CD3.X326 STRING Closing Disclosure Page 3 - Section L - Paid Already by or on Behalf of Borrower at Closing (line 11) - Fee Description - Line 2 16.2
Standard CD3.X327 DECIMAL_2 Closing Disclosure Page 3 - Section L - Paid Already by or on Behalf of Borrower at Closing (line 11) - Fee Amount - Line 2 16.2
Standard CD3.X328 YN 2 Closing Disclosure Page 3 - Section L - Paid Already by or on Behalf of Borrower at Closing (line 11) - Fee POC - Line 2 16.2
Standard CD3.X329 STRING 4 Closing Disclosure Page 3 - Section L - Paid Already by or on Behalf of Borrower at Closing (line 11) - Fee Account Type - Line 2 16.2
Standard CD3.X330 STRING Closing Disclosure Page 3 - Section L - Paid Already by or on Behalf of Borrower at Closing (line 11) - Fee Description - Line 3 16.2
Standard CD3.X331 DECIMAL_2 Closing Disclosure Page 3 - Section L - Paid Already by or on Behalf of Borrower at Closing (line 11) - Fee Amount - Line 3 16.2
Standard CD3.X332 YN 2 Closing Disclosure Page 3 - Section L - Paid Already by or on Behalf of Borrower at Closing (line 11) - Fee POC - Line 3 16.2
Standard CD3.X333 STRING 4 Closing Disclosure Page 3 - Section L - Paid Already by or on Behalf of Borrower at Closing (line 11) - Fee Account Type - Line 3 16.2
Standard CD3.X334 STRING Closing Disclosure Page 3 - Section L - Paid Already by or on Behalf of Borrower at Closing (line 11) - Fee Description - Line 4 16.2
Standard CD3.X335 DECIMAL_2 Closing Disclosure Page 3 - Section L - Paid Already by or on Behalf of Borrower at Closing (line 11) - Fee Amount - Line 4 16.2
Standard CD3.X336 YN 2 Closing Disclosure Page 3 - Section L - Paid Already by or on Behalf of Borrower at Closing (line 11) - Fee POC - Line 4 16.2
Standard CD3.X337 STRING 4 Closing Disclosure Page 3 - Section L - Paid Already by or on Behalf of Borrower at Closing (line 11) - Fee Account Type - Line 4 16.2
Standard CD3.X98 DECIMAL_2 STD LE Fund For Borrower 15.1
Standard CD3.XH98 DECIMAL_2 Decimal Value of STD LE Funds For Borrower From Latest Disclosure Tracking Log 15.2
Standard CLOSING.PRTINITBLCKNTBOOL YN 2 Ellie Mae Closing Document Override - Print Borrower Initial Line on Note Indicator 8.1
Standard COBORR.OCCUPANCYINTENT STRING 3 Borrower Vesting Borr POA Occupancy Intent 9.1
Standard COBORR.POASIGTXT STRING Borrower Vesting Co-Borr POA Signature Text 8.1
Standard COBORR.TRUSTEEOF STRING 2 Borrower Vesting Co-Borr Trustee Of 8.1
Standard CPA.PAYMENTHISTORY.FIRSTBORROWERPAYMENTDUEDATE DATE Correspondent Purchase Advice Payment History Calculator 1st Payment Due from Borrower 17.3
Standard CR0013 STRING Co-Borr Residence Verif is For Borrower
Standard DENIAL.X81 STRING 3 Denial Discl Info - Borrower Address Type 9.1
Standard DENIAL.X82 STRING Denial Discl Info - Borrower Address 9.1
Standard DENIAL.X83 STRING Denial Discl Info - Borrower Address - City 9.1
Standard DENIAL.X84 STATE Denial Discl Info - Borrower Address - State 9.1
Standard DENIAL.X85 ZIPCODE Denial Discl Info - Borrower Address - Zipcode 9.1
Standard DENIAL.X86 STRING 3 Denial Discl Info - Coborrower Address Type 9.1
Standard DENIAL.X87 STRING Denial Discl Info - Coborrower Address 9.1
Standard DENIAL.X88 STRING Denial Discl Info - Coborrower Address - City 9.1
Standard DENIAL.X89 STATE Denial Discl Info - Coborrower Address - State 9.1
Standard DENIAL.X90 ZIPCODE Denial Discl Info - Coborrower Address - Zipcode 9.1
Virtual DISCLOSEDGFE.BORROWERNAME STRING GFE Disclosure Borrower Name
Virtual DISCLOSEDGFE.COBORROWERNAME STRING GFE Disclosure CoBorrower Name
Virtual DISCLOSEDGFE.SNAPSHOT.3164 YN GFE Snapshot - Borrower Intends to Continue Chkbx
Virtual DISCLOSEDGFE.SNAPSHOT.NEWHUD.X1002 YN GFE Snapshot - Component Fee of Line 1101 Additional Line 1101f Borrower Selects 15.1
Virtual DISCLOSEDTIL.BORROWERNAME STRING TIL Disclosure Borrower Name
Virtual DISCLOSEDTIL.COBORROWERNAME STRING TIL Disclosure CoBorrower Name
Standard DISCLOSURE.X1097 STRING 2 State Disc - Borrower Elects to Pay Lower Interest Rate Indicator 14.2
Standard DISCLOSURE.X1151 DECIMAL_2 State Disc - NY - Sum advanced to Borrower for improvement costs incurred prior to closing 17.1
Standard DISCLOSURE.X199 YN 2 State Disc - Borrower Consent Type
Standard DISCLOSURE.X220 YN 2 State Disc - Borrower Consent Type 2
Standard DISCLOSURE.X339 YN 2 State Disc - Escrow Account Selected at Borrower's Option
Standard DISCLOSURE.X382 YN 2 State Disc - Broker/Lender Educates Borrower on Mtg Financing
Standard DISCLOSURE.X392 YN 2 State Disc - Broker/Lender Explains Compensation from Borrower
Standard DISCLOSURE.X410 STRING State Disc - Facts That May Affect Borrower's Intended Benefit
Standard DISCLOSURE.X439 YN 2 State Disc - Borrower wishes to select Title Insurer
Standard DISCLOSURE.X440 STRING State Disc - Borrower wishes to select Title Insurer Name
Standard DISCLOSURE.X441 STRING State Disc - Borrower wishes to select Title Insurer Address
Standard DISCLOSURE.X442 STRING State Disc - Borrower wishes to select Title Insurer City
Standard DISCLOSURE.X443 STATE State Disc - Borrower wishes to select Title Insurer State
Standard DISCLOSURE.X444 ZIPCODE State Disc - Borrower wishes to select Title Insurer Zipcode
Standard DISCLOSURE.X445 PHONE State Disc - Borrower wishes to select Title Insurer Phone
Standard DISCLOSURE.X620 STRING 3 State Disc - Borrower elects to exercise right to select Attorney
Standard DISCLOSURE.X645 YN 2 State Disc - Option 3. Borrower will add mortgage broker directly
Standard DISCLOSURE.X647 DECIMAL_2 State Disc - Option 3. Borrower will add mortgage broker fees in the amount of
Standard DISCLOSURE.X648 DECIMAL_2 State Disc - Option 4. Third parties will pay mortgage broker fees on behalf of the Borrower in the amount of
Standard DISCLOSURE.X650 YN 2 State Disc - Option 2. Borrower will pay mortgage broker fees in the amount of
Standard DISCLOSURE.X652 DECIMAL_2 State Disc - Option 2. Borrower will pay mortgage broker fees in the amount of fee
Standard DISCLOSURE.X683 STRING 2 State Disc - Borrower acknowledges receiving the Information Document
Standard DISCLOSURE.X736 DECIMAL_2 Anti-Steering Disclosure - Loan Option 1 - Loan Origination Fee Borrower Paid Amount
Standard DISCLOSURE.X769 DECIMAL_2 Anti-Steering Disclosure - Loan Option 2 - Loan Origination Fee Borrower Paid Amount
Standard DISCLOSURE.X802 DECIMAL_2 Anti-Steering Disclosure - Loan Option 3 - Loan Origination Fee Borrower Paid Amount
Standard DISCLOSURE.X835 DECIMAL_2 Anti-Steering Disclosure - Loan Option 4 - Loan Origination Fee Borrower Paid Amount
Standard DISCLOSURE.X874 YN 2 State Disc - Borrower Elects to Establish an Escrow Account for Payment of Real Estate Property Taxes
Standard DISCLOSURE.X875 YN 2 State Disc - Borrower Elects not to Exercise Right to Select Attorney
Standard DISCLOSURE.X913 YN 2 Disclosure- CA Borrower Elects To Establish Escrow Account Indicator
Standard DISCLOSURE.X914 DECIMAL_2 Disclosure- CA Borrower Elects To Establish Escrow Account Amount
Standard DISCLOSURE.X943 YN 2 Disclosure Experian Borrower Material Terms of Credit Set by Credit Score
Standard DISCLOSURE.X944 YN 2 Disclosure Experian Borrower Material Terms of Credit Set by Credit Score
Standard DISCLOSURE.X945 YN 2 Disclosure Trans Union Borrower Material Terms of Credit Set by Credit Score
Standard DISCLOSURE.X946 YN 2 Disclosure Trans Union Borrower Material Terms of Credit Set by Credit Score
Standard DISCLOSURE.X947 YN 2 Disclosure Trans Union Borrower Material Terms of Credit Set by Credit Score
Standard DISCLOSURE.X948 YN 2 Disclosure Trans Union Borrower Material Terms of Credit Set by Credit Score
Virtual DOCS.CLOSING.PRTINITBLCKNTBOOL YN Closing Docs - Print Borrower Initial Line on Note Indicator 8.1
Virtual EDISCLOSED2015TRK.EDISCLOSUREBORROWERCONSENT STRING 2015 Borrower Consent when eDisclosure was sent 15.1
Virtual EDISCLOSED2015TRK.EDISCLOSURECOBORROWERCONSENT STRING 2015 Co-Borrower Consent when eDisclosure was sent 15.1
Virtual EDISCLOSEDTRK.BORROWERDATEACCEPTED DATETIME eDisclosure Date Borrowers Accepted Consent Form 8.1
Virtual EDISCLOSEDTRK.BORROWERDATEAUTHENTICATED DATETIME eDisclosure Date Borrowers Authenticated 14.2
Virtual EDISCLOSEDTRK.BORROWERDATEESIGNED DATETIME eDisclosure Date Borrowers eSigned Disclosures 8.1
Virtual EDISCLOSEDTRK.BORROWERDATEREJECTED DATETIME eDisclosure Date Borrowers Rejected Consent Form 8.1
Virtual EDISCLOSEDTRK.BORROWERDOCUMENTVIEWEDDATE DATETIME eDisclosure Borrower Document Viewed date 15.1
Virtual EDISCLOSEDTRK.BORROWERIPADDRESSACCEPTED STRING eDisclosure IP Address Borrowers Accepted Consent Form 14.2
Virtual EDISCLOSEDTRK.BORROWERIPADDRESSAUTHENTICATED STRING eDisclosure IP Address Borrowers Authenticated 14.2
Virtual EDISCLOSEDTRK.BORROWERIPADDRESSESIGNED STRING eDisclosure IP Address Borrowers eSigned Disclosures 14.2
Virtual EDISCLOSEDTRK.BORROWERIPADDRESSREJECTED STRING eDisclosure IP Address Borrowers Rejected Consent Form 14.2
Virtual EDISCLOSEDTRK.BORROWERNAME STRING eDisclosure Borrower's Name 14.2
Virtual EDISCLOSEDTRK.COBORROWERDATEACCEPTED DATETIME eDisclosure Date CoBorrowers Accepted Consent Form 8.1
Virtual EDISCLOSEDTRK.COBORROWERDATEAUTHENTICATED DATETIME eDisclosure Date CoBorrowers Authenticated 14.2
Virtual EDISCLOSEDTRK.COBORROWERDATEESIGNED DATETIME eDisclosure Date CoBorrowers eSigned Disclosures 8.1
Virtual EDISCLOSEDTRK.COBORROWERDATEREJECTED DATETIME eDisclosure Date CoBorrowers Rejected Consent Form 8.1
Virtual EDISCLOSEDTRK.COBORROWERDOCUMENTVIEWEDDATE DATETIME eDisclosure Co-Borrower Document Viewed date 15.1
Virtual EDISCLOSEDTRK.COBORROWERIPADDRESSACCEPTED STRING eDisclosure IP Address CoBorrowers Accepted Consent Form 14.2
Virtual EDISCLOSEDTRK.COBORROWERIPADDRESSAUTHENTICATED STRING eDisclosure IP Address CoBorrowers Authenticated 14.2
Virtual EDISCLOSEDTRK.COBORROWERIPADDRESSESIGNED STRING eDisclosure IP Address CoBorrowers eSigned Disclosures 14.2
Virtual EDISCLOSEDTRK.COBORROWERIPADDRESSREJECTED STRING eDisclosure IP Address CoBorrowers Rejected Consent Form 14.2
Virtual EDISCLOSEDTRK.COBORROWERNAME STRING eDisclosure CoBorrower's Name 14.2
Standard FLGFE.X76 YN 2 Disclosure-FL GFE of settlemnt chrgs dated/signed by borrower
Standard HOC.X22 YN 2 Home Counseling Provider - Borrower Select Counselor Indicator 17.3
Standard LE2.X2 DECIMAL_2 Loan Estimate - Down Payment/Funds from Borrower 15.1
Standard LE2.X27 STRING Loan Estimate - From Or To Borrower 15.1
Standard LE2.X3 DECIMAL_2 Loan Estimate - Funds for Borrower 15.1
Virtual LOCKRATE.3515 YN 2 Rate Lock - Borrower Can Demonstrate 12-Month Mortgage/Rental History (Most Recent) 8.1
Virtual LOCKRATE.3530 YN 2 Rate Lock - Lock Request Borrower Can Demonstrate 12-Month Mortgage/Rental History (Most Recent) 8.1
Virtual LOCKRATE.4463 STRING 3 Rate Lock - Rate Lock Request - Borrower/Lender Paid (Most Recent) 18.3
Virtual LOCKRATE.CONFIRMED.3515 YN 2 Rate Request - Borrower Can Demonstrate 12-Month Mortgage/Rental History (Mostly Recent Confirmed) 8.1
Virtual LOCKRATE.CONFIRMED.3530 YN 2 Rate Request - Lock Request Borrower Can Demonstrate 12-Month Mortgage/Rental History (Mostly Recent Confirmed) 8.1
Virtual LOCKRATE.CONFIRMED.4463 STRING 3 Rate Request - Rate Lock Request - Borrower/Lender Paid (Mostly Recent Confirmed) 18.3
Virtual LOCKRATE.DENIED.3515 YN 2 Rate Lock Denial - Borrower Can Demonstrate 12-Month Mortgage/Rental History (Most Recent) 8.1
Virtual LOCKRATE.DENIED.3530 YN 2 Rate Lock Denial - Lock Request Borrower Can Demonstrate 12-Month Mortgage/Rental History (Most Recent) 8.1
Virtual LOCKRATE.DENIED.4463 STRING 3 Rate Lock Denial - Rate Lock Request - Borrower/Lender Paid (Most Recent) 18.3
Virtual LOCKRATE.REQUEST.3515 YN 2 Rate Lock Request - Borrower Can Demonstrate 12-Month Mortgage/Rental History (Most Recent) 8.1
Virtual LOCKRATE.REQUEST.3530 YN 2 Rate Lock Request - Lock Request Borrower Can Demonstrate 12-Month Mortgage/Rental History (Most Recent) 8.1
Virtual LOCKRATE.REQUEST.4463 STRING 3 Rate Lock Request - Rate Lock Request - Borrower/Lender Paid (Most Recent) 18.3
Virtual LOCKRATE1.3515 YN 2 Rate Lock - Borrower Can Demonstrate 12-Month Mortgage/Rental History (Previous 1) 8.1
Virtual LOCKRATE1.3530 YN 2 Rate Lock - Lock Request Borrower Can Demonstrate 12-Month Mortgage/Rental History (Previous 1) 8.1
Virtual LOCKRATE1.4463 STRING 3 Rate Lock - Rate Lock Request - Borrower/Lender Paid (Previous 1) 18.3
Virtual LOCKRATE1.DENIED.3515 YN 2 Rate Lock Denial - Borrower Can Demonstrate 12-Month Mortgage/Rental History (Previous 1) 8.1
Virtual LOCKRATE1.DENIED.3530 YN 2 Rate Lock Denial - Lock Request Borrower Can Demonstrate 12-Month Mortgage/Rental History (Previous 1) 8.1
Virtual LOCKRATE1.DENIED.4463 STRING 3 Rate Lock Denial - Rate Lock Request - Borrower/Lender Paid (Previous 1) 18.3
Virtual LOCKRATE1.REQUEST.3515 YN 2 Rate Lock Request - Borrower Can Demonstrate 12-Month Mortgage/Rental History (Previous 1) 8.1
Virtual LOCKRATE1.REQUEST.3530 YN 2 Rate Lock Request - Lock Request Borrower Can Demonstrate 12-Month Mortgage/Rental History (Previous 1) 8.1
Virtual LOCKRATE1.REQUEST.4463 STRING 3 Rate Lock Request - Rate Lock Request - Borrower/Lender Paid (Previous 1) 18.3
Virtual LOCKRATE2.3515 YN 2 Rate Lock - Borrower Can Demonstrate 12-Month Mortgage/Rental History (Previous 2) 8.1
Virtual LOCKRATE2.3530 YN 2 Rate Lock - Lock Request Borrower Can Demonstrate 12-Month Mortgage/Rental History (Previous 2) 8.1
Virtual LOCKRATE2.4463 STRING 3 Rate Lock - Rate Lock Request - Borrower/Lender Paid (Previous 2) 18.3
Virtual LOCKRATE2.DENIED.3515 YN 2 Rate Lock Denial - Borrower Can Demonstrate 12-Month Mortgage/Rental History (Previous 2) 8.1
Virtual LOCKRATE2.DENIED.3530 YN 2 Rate Lock Denial - Lock Request Borrower Can Demonstrate 12-Month Mortgage/Rental History (Previous 2) 8.1
Virtual LOCKRATE2.DENIED.4463 STRING 3 Rate Lock Denial - Rate Lock Request - Borrower/Lender Paid (Previous 2) 18.3
Virtual LOCKRATE2.REQUEST.3515 YN 2 Rate Lock Request - Borrower Can Demonstrate 12-Month Mortgage/Rental History (Previous 2) 8.1
Virtual LOCKRATE2.REQUEST.3530 YN 2 Rate Lock Request - Lock Request Borrower Can Demonstrate 12-Month Mortgage/Rental History (Previous 2) 8.1
Virtual LOCKRATE2.REQUEST.4463 STRING 3 Rate Lock Request - Rate Lock Request - Borrower/Lender Paid (Previous 2) 18.3
Virtual LOCKRATE3.3515 YN 2 Rate Request - Borrower Can Demonstrate 12-Month Mortgage/Rental History (Most Recent) 8.1
Virtual LOCKRATE3.3530 YN 2 Rate Request - Lock Request Borrower Can Demonstrate 12-Month Mortgage/Rental History (Most Recent) 8.1
Virtual LOCKRATE3.4463 STRING 3 Rate Request - Rate Lock Request - Borrower/Lender Paid (Most Recent) 18.3
Standard MAX23K.X59 DECIMAL_2 FHA 203k D3 Borrower Paid Closing Costs
Standard MAX23K.X91 DECIMAL_2 FHA 203k - Material costs for items ordered and prepaid by Borrower/or contractor (under contract for delivery) 16.1
Standard MAX23K.X92 DECIMAL_2 FHA 203k - Up to 50% of materials costs for items ordered but not yet paid for by the Borrower/or contractor 16.1
Standard MAX23K.X95 DECIMAL_2 FHA 203k - Borrowers Own Funds for Contingency Reserves (if not financed in 6:A1) 16.1
Standard MORNET.X100 STRING Fannie Mae - Borrower - Asset Validation Message 17.3 18.4
Standard MORNET.X101 YN 2 Fannie Mae - Borrower - PIW Eligible 17.3 18.4
Standard MORNET.X102 YN 2 Fannie Mae - Borrower - Value Rep and Warranty 17.3
Standard MORNET.X103 YN 2 Fannie Mae - Borrower - Asset Validation 17.3 18.4
Standard MORNET.X104 YN 2 Fannie Mae - Borrower - Income Verification 17.3 18.4
Standard MORNET.X105 YN 2 Fannie Mae - Borrower - Base Income Available 17.3
Standard MORNET.X106 YN 2 Fannie Mae - Borrower - Bonus Available 17.3
Standard MORNET.X107 YN 2 Fannie Mae - Borrower - Overtime Available 17.3
Standard MORNET.X108 YN 2 Fannie Mae - Borrower - Commission less than 25% 17.3 18.4
Standard MORNET.X109 YN 2 Fannie Mae - Borrower - Social Security Available 17.3
Standard MORNET.X110 YN 2 Fannie Mae - Borrower - Is Self Employed 17.3
Standard MORNET.X111 STRING Fannie Mae - Coborrower - PIW Message 17.3
Standard MORNET.X112 STRING Fannie Mae - Coborrower - Value Rep and Warranty Message 17.3
Standard MORNET.X113 STRING Fannie Mae - Coborrower - Income Verification Message 17.3 18.4
Standard MORNET.X114 STRING Fannie Mae - Coborrower - Asset Validation Message 17.3 18.4
Standard MORNET.X115 YN 2 Fannie Mae - Coborrower - PIW Accepted 17.3
Standard MORNET.X116 YN 2 Fannie Mae - Coborrower - Value Rep and Warranty 17.3
Standard MORNET.X117 YN 2 Fannie Mae - Coborrower - Asset Validation 17.3 18.4
Standard MORNET.X118 YN 2 Fannie Mae - Coborrower - Income Verification 17.3 18.4
Standard MORNET.X119 YN 2 Fannie Mae - Coborrower - Base Income Available 17.3
Standard MORNET.X120 YN 2 Fannie Mae - Coborrower - Bonus Available 17.3
Standard MORNET.X121 YN 2 Fannie Mae - Coborrower - Overtime Available 17.3
Standard MORNET.X122 YN 2 Fannie Mae - Coborrower - Commission less than 25% 17.3 18.4
Standard MORNET.X123 YN 2 Fannie Mae - Coborrower - Social Security Available 17.3
Standard MORNET.X124 YN 2 Fannie Mae - Coborrower - Borrower 1 Self Employed 17.3
Standard MORNET.X127 YN 2 Fannie Mae - Borrower - Pension and Retirement Income 18.4
Standard MORNET.X128 YN 2 Fannie Mae - Borrower - Tax Return Validation 18.4
Standard MORNET.X129 YN 2 Fannie Mae - Borrower - Employment Verification 18.4
Standard MORNET.X130 STRING Fannie Mae - Borrower - Pension and Retirement Income Message 18.4
Standard MORNET.X131 STRING Fannie Mae - Borrower - Employment Verification Message 18.4
Standard MORNET.X132 STRING Fannie Mae - Borrower - Base Income Validation Message 18.4
Standard MORNET.X133 STRING Fannie Mae - Borrower - Bonus Validation Message 18.4
Standard MORNET.X134 STRING Fannie Mae - Borrower - Overtime Validation Message 18.4
Standard MORNET.X135 STRING Fannie Mae - Borrower - Commission Validation Message 18.4
Standard MORNET.X136 STRING Fannie Mae - Borrower - Social Security Validation Message 18.4
Standard MORNET.X137 STRING Fannie Mae - Borrower - Self-Employed Validation Message 18.4
Standard MORNET.X138 STRING Fannie Mae - Borrower - Tax Return Validation Message 18.4
Standard MORNET.X139 YN 2 Fannie Mae - Coborrower - Pension and Retirement Income 18.4
Standard MORNET.X140 YN 2 Fannie Mae - Coborrower - Tax Return Validation 18.4
Standard MORNET.X141 YN 2 Fannie Mae - Coborrower - Employment Verification 18.4
Standard MORNET.X142 STRING Fannie Mae - Coborrower - Pension and Retirement Income Message 18.4
Standard MORNET.X143 STRING Fannie Mae - Coborrower - Employment Verification Message 18.4
Standard MORNET.X144 STRING Fannie Mae - Coborrower - Base Income Validation Message 18.4
Standard MORNET.X145 STRING Fannie Mae - Coborrower - Bonus Validation Message 18.4
Standard MORNET.X146 STRING Fannie Mae - Coborrower - Overtime Validation Message 18.4
Standard MORNET.X147 STRING Fannie Mae - Coborrower - Commission Validation Message 18.4
Standard MORNET.X148 STRING Fannie Mae - Coborrower - Social Security Validation Message 18.4
Standard MORNET.X149 STRING Fannie Mae - Coborrower - Self-Employed Validation Message 18.4
Standard MORNET.X150 STRING Fannie Mae - Coborrower - Tax Return Validation Message 18.4
Standard MORNET.X151 YN 2 Fannie Mae Bankruptcy,Foreclosure and Mortgage Delinquency Messages for DU- Borrower-Inaccurate Bankruptcy Information ("Confirmed CR BK Incorrect") 18.4
Standard MORNET.X152 YN 2 Fannie Mae Bankruptcy,Foreclosure and Mortgage Delinquency Messages for DU- Borrower - Bankruptcy Due to Extenuating Circumstances ("Confirmed CR BK EC") 18.4
Standard MORNET.X153 YN 2 Fannie Mae Bankruptcy,Foreclosure and Mortgage Delinquency Messages for DU- Coborrower - Confirmed Mortgage Delinquency Incorrect ("Confirmed Mtg Del Incorrect") 18.4
Standard MORNET.X154 YN 2 Fannie Mae Bankruptcy,Foreclosure and Mortgage Delinquency Messages for DU- Borrower - Confirmed Mortgage Delinquency Incorrect ("Confirmed Mtg Del Incorrect") 18.4
Standard MORNET.X155 YN 2 Fannie Mae Bankruptcy,Foreclosure and Mortgage Delinquency Messages for DU- Coborrower-Inaccurate Bankruptcy Information ("Confirmed CR BK Incorrect") 18.4
Standard MORNET.X156 YN 2 Fannie Mae Bankruptcy,Foreclosure and Mortgage Delinquency Messages for DU- Coborrower - Bankruptcy Due to Extenuating Circumstances ("Confirmed CR BK EC") 18.4
Standard MORNET.X79 YN 2 Fannie Mae Foreclosure Message for DU - Borrower - Inaccurate Foreclosure information ("Confirmed CR FC Incorrect") 14.2
Standard MORNET.X80 YN 2 Fannie Mae Foreclosure Message for DU - Borrower - Foreclosure due to extenuating circumstances ("Confirmed CR FC EC") 14.2
Standard MORNET.X81 YN 2 Fannie Mae Foreclosure Message for DU - Borrower - Deed-in-Lieu of Foreclosure ("Confirmed CR DIL") 14.2
Standard MORNET.X82 YN 2 Fannie Mae Foreclosure Message for DU - Borrower - Preforeclosure Sales or Short Sales (Confirmed CR PFS") 14.2
Standard MORNET.X83 YN 2 Fannie Mae Foreclosure Message for DU - Borrower - Other 14.2
Standard MORNET.X84 STRING Fannie Mae Foreclosure Message for DU - Borrower - Other Description 14.2
Standard MORNET.X85 YN 2 Fannie Mae Foreclosure Message for DU - Borrower - Inaccurate Foreclosure information ("Confirmed CR FC Incorrect") 14.2
Standard MORNET.X86 YN 2 Fannie Mae Foreclosure Message for DU - Borrower - Foreclosure due to extenuating circumstances ("Confirmed CR FC EC") 14.2
Standard MORNET.X87 YN 2 Fannie Mae Foreclosure Message for DU - Borrower - Deed-in-Lieu of Foreclosure ("Confirmed CR DIL") 14.2
Standard MORNET.X88 YN 2 Fannie Mae Foreclosure Message for DU - Borrower - Preforeclosure Sales or Short Sales (Confirmed CR PFS") 14.2
Standard MORNET.X89 YN 2 Fannie Mae Foreclosure Message for DU - Borrower - Other 14.2
Standard MORNET.X90 STRING Fannie Mae Foreclosure Message for DU - Borrower - Other Description 14.2
Standard MORNET.X97 STRING Fannie Mae - Borrower - PIW Message 17.3
Standard MORNET.X98 STRING Fannie Mae - Borrower - Value Rep and Warranty Message 17.3
Standard MORNET.X99 STRING Fannie Mae - Borrower - Income Verification Message 17.3 18.4
Standard NBOC0099 STRING Non-Borrowing Owner File Contact - Borrower Vesting Record ID 18.3
Standard NEWHUD.X1002 YN 2 Component Fee of Line 1101 Additional Line 1101f Borrower Selects 15.1
Standard NEWHUD.X1151 DECIMAL_2 LO Compensation - Borrower Paid Discount Point Amount Line 1
Standard NEWHUD.X1155 DECIMAL_2 LO Compensation - Borrower Paid Discount Point Amount Line 2
Standard NEWHUD.X1159 DECIMAL_2 LO Compensation - Borrower Paid Discount Point Amount Line 3
Standard NEWHUD.X1163 DECIMAL_2 LO Compensation - Borrower Paid Discount Point Amount Line 4
Standard NEWHUD.X1165 DECIMAL_2 LO Compensation - TotalBorrower Paid Discount Point Amount Line 4
Standard NEWHUD.X1208 DECIMAL_2 LO Compensation - GFE -Borrower Paid Discount Point Amount Line 1
Standard NEWHUD.X1210 DECIMAL_2 LO Compensation - GFE -Borrower Paid Discount Point Amount Line 2
Standard NEWHUD.X1212 DECIMAL_2 LO Compensation - GFE -Borrower Paid Discount Point Amount Line 3
Standard NEWHUD.X1214 DECIMAL_2 LO Compensation - GFE -Borrower Paid Discount Point Amount Line 4
Standard NEWHUD.X1215 DECIMAL_2 LO Compensation - GFE -Total Borrower Paid Discount Point Amount
Standard NEWHUD.X1217 STRING Fees Line 802e Origination Points Borrower Checked
Standard NEWHUD.X1219 STRING Fees Line 802f Origination Points Borrower Checked
Standard NEWHUD.X1221 STRING Fees Line 802g Origination Points Borrower Checked
Standard NEWHUD.X1223 STRING Fees Line 802h Origination Points Borrower Checked
Standard NEWHUD.X1231 STRING Fees Line 802a Origination Points Borrower Checked
Standard NEWHUD.X1232 STRING Fees Line 802b Origination Points Borrower Checked
Standard NEWHUD.X1233 STRING Fees Line 802c Origination Points Borrower Checked
Standard NEWHUD.X1234 STRING Fees Line 802d Origination Points Borrower Checked
Standard NEWHUD.X1479 YN 2 Fees Line 801 L Funding Worksheet Checkbox for Borrower
Standard NEWHUD.X1480 YN 2 Fees Line 801 M Funding Worksheet Checkbox for Borrower
Standard NEWHUD.X1481 YN 2 Fees Line 801 N Funding Worksheet Checkbox for Borrower
Standard NEWHUD.X1482 YN 2 Fees Line 801 O Funding Worksheet Checkbox for Borrower
Standard NEWHUD.X1483 YN 2 Fees Line 801 P Funding Worksheet Checkbox for Borrower
Standard NEWHUD.X1484 YN 2 Fees Line 801 Q Funding Worksheet Checkbox for Borrower
Standard NEWHUD.X1485 YN 2 Fees Line 801 R Funding Worksheet Checkbox for Borrower
Standard NEWHUD.X1486 YN 2 Fees Line 820 Funding Worksheet Checkbox for Borrower
Standard NEWHUD.X1487 YN 2 Fees Line 821 Funding Worksheet Checkbox for Borrower
Standard NEWHUD.X1488 YN 2 Fees Line 822 Funding Worksheet Checkbox for Borrower
Standard NEWHUD.X1489 YN 2 Fees Line 823 Funding Worksheet Checkbox for Borrower
Standard NEWHUD.X1490 YN 2 Fees Line 824 Funding Worksheet Checkbox for Borrower
Standard NEWHUD.X1491 YN 2 Fees Line 825 Funding Worksheet Checkbox for Borrower
Standard NEWHUD.X1492 YN 2 Fees Line 826 Funding Worksheet Checkbox for Borrower
Standard NEWHUD.X1493 YN 2 Fees Line 827 Funding Worksheet Checkbox for Borrower
Standard NEWHUD.X1494 YN 2 Fees Line 828 Funding Worksheet Checkbox for Borrower
Standard NEWHUD.X1495 YN 2 Fees Line 829 Funding Worksheet Checkbox for Borrower
Standard NEWHUD.X1496 YN 2 Fees Line 830 Funding Worksheet Checkbox for Borrower
Standard NEWHUD.X1497 YN 2 Fees Line 831 Funding Worksheet Checkbox for Borrower
Standard NEWHUD.X1498 YN 2 Fees Line 832 Funding Worksheet Checkbox for Borrower
Standard NEWHUD.X1499 YN 2 Fees Line 833 Funding Worksheet Checkbox for Borrower
Standard NEWHUD.X1500 YN 2 Fees Line 834 Funding Worksheet Checkbox for Borrower
Standard NEWHUD.X1501 YN 2 Fees Line 835 Funding Worksheet Checkbox for Borrower
Standard NEWHUD.X1684 STRING Fees Line 911 Borrower Checked
Standard NEWHUD.X1685 STRING Fees Line 912 Borrower Checked
Standard NEWHUD.X1686 STRING Funding Title Charges User Defined 1115 Checked Borrower
Standard NEWHUD.X1687 STRING Funding Title Charges User Defined 1116 Checked Borrower
Standard NEWHUD.X1688 STRING Funding Govt Fees User Defined 1209 Checked Borrower
Standard NEWHUD.X1689 STRING Funding Govt Fees User Defined 1210 Checked Borrower
Standard NEWHUD.X1712 STRING Fees Line 1010 Guarantee Fee Funding Worksheet Checked Borrower
Standard NEWHUD.X1719 DECIMAL_2 Fees Section 1000 Borrower Paid Total Amount 9.1
Standard NEWHUD.X1723 DECIMAL_2 Fees Borrower Paid Initial Discount Point Amount 9.1
Standard NEWHUD.X225 DECIMAL_2 Fees Line 801 Broker Compensation Borrower Paid
Standard NEWHUD.X603 DECIMAL_2 Fees Line 1301 Borrower
Standard NEWHUD.X672 STRING Fees Line Fees Line 801 Broker Compensation Borrower Checked
Standard NEWHUD.X674 STRING Fees Line 807 Borrower Checked
Standard NEWHUD.X675 STRING Fees Line 904 Borrower Checked
Standard NEWHUD.X676 STRING Fees Line 909 Borrower Checked
Standard NEWHUD.X677 STRING Fees Line 910 Borrower Checked
Standard NEWHUD.X678 STRING Fees Line 1107 Borrower Checked
Standard NEWHUD.X679 STRING Fees Line 1108 Borrower Checked
Standard NEWHUD.X680 STRING Fees Line 1109 Borrower Checked
Standard NEWHUD.X795 DECIMAL_2 Fees Line 801 Borrower Paid Total
Standard NEWHUD.X796 DECIMAL_2 Fees Line 803 Borrower Paid Total
Standard NEWHUD.X797 DECIMAL_2 Fees Line 802 Borrower Paid Total
Standard NEWHUD.X952 DECIMAL_2 Component Fee of Line 1101 Additional Line 1101a Borrower Paid Amount
Standard NEWHUD.X961 DECIMAL_2 Component Fee of Line 1101 Additional Line 1101b Borrower Paid Amount
Standard NEWHUD.X970 DECIMAL_2 Component Fee of Line 1101 Additional Line 1101c Borrower Paid Amount
Standard NEWHUD.X979 DECIMAL_2 Component Fee of Line 1101 Additional Line 1101d Borrower Paid Amount
Standard NEWHUD.X988 DECIMAL_2 Component Fee of Line 1101 Additional Line 1101e Borrower Paid Amount
Standard NEWHUD.X997 DECIMAL_2 Component Fee of Line 1101 Additional Line 1101f Borrower Paid Amount
Standard NEWHUD2.X1000 DECIMAL_2 Fee Details - Line 802g - Borrower PTC Amount 15.1
Standard NEWHUD2.X1001 DECIMAL_2 Fee Details - Line 802g - Borrower PAC Amount 15.1
Standard NEWHUD2.X1002 DECIMAL_2 Fee Details - Line 802g - Borrower POC Amount 15.1
Standard NEWHUD2.X1003 DECIMAL_2 Fee Details - Line 802g - Borrower Amount Paid 15.1
Standard NEWHUD2.X1018 YN 2 Fee Details - Line 802g - Borrower Can Shop For 15.1
Standard NEWHUD2.X1019 YN 2 Fee Details - Line 802g - Borrower Did Shop For 15.1
Standard NEWHUD2.X1032 DECIMAL_2 Fee Details - Line 802h - Borrower Financed Amount 15.1
Standard NEWHUD2.X1033 DECIMAL_2 Fee Details - Line 802h - Borrower PTC Amount 15.1
Standard NEWHUD2.X1034 DECIMAL_2 Fee Details - Line 802h - Borrower PAC Amount 15.1
Standard NEWHUD2.X1035 DECIMAL_2 Fee Details - Line 802h - Borrower POC Amount 15.1
Standard NEWHUD2.X1036 DECIMAL_2 Fee Details - Line 802h - Borrower Amount Paid 15.1
Standard NEWHUD2.X1051 YN 2 Fee Details - Line 802h - Borrower Can Shop For 15.1
Standard NEWHUD2.X1052 YN 2 Fee Details - Line 802h - Borrower Did Shop For 15.1
Standard NEWHUD2.X1065 DECIMAL_2 Fee Details - Line 803 - Borrower Financed Amount 15.1
Standard NEWHUD2.X1066 DECIMAL_2 Fee Details - Line 803 - Borrower PTC Amount 15.1
Standard NEWHUD2.X1067 DECIMAL_2 Fee Details - Line 803 - Borrower PAC Amount 15.1
Standard NEWHUD2.X1068 DECIMAL_2 Fee Details - Line 803 - Borrower POC Amount 15.1
Standard NEWHUD2.X1069 DECIMAL_2 Fee Details - Line 803 - Borrower Amount Paid 15.1
Standard NEWHUD2.X1084 YN 2 Fee Details - Line 803 - Borrower Can Shop For 15.1
Standard NEWHUD2.X1085 YN 2 Fee Details - Line 803 - Borrower Did Shop For 15.1
Standard NEWHUD2.X1098 DECIMAL_2 Fee Details - Line 804 - Borrower Financed Amount 15.1
Standard NEWHUD2.X1099 DECIMAL_2 Fee Details - Line 804 - Borrower PTC Amount 15.1
Standard NEWHUD2.X1100 DECIMAL_2 Fee Details - Line 804 - Borrower PAC Amount 15.1
Standard NEWHUD2.X1101 DECIMAL_2 Fee Details - Line 804 - Borrower POC Amount 15.1
Standard NEWHUD2.X1102 DECIMAL_2 Fee Details - Line 804 - Borrower Amount Paid 15.1
Standard NEWHUD2.X1117 YN 2 Fee Details - Line 804 - Borrower Can Shop For 15.1
Standard NEWHUD2.X1118 YN 2 Fee Details - Line 804 - Borrower Did Shop For 15.1
Standard NEWHUD2.X1131 DECIMAL_2 Fee Details - Line 805 - Borrower Financed Amount 15.1
Standard NEWHUD2.X1132 DECIMAL_2 Fee Details - Line 805 - Borrower PTC Amount 15.1
Standard NEWHUD2.X1133 DECIMAL_2 Fee Details - Line 805 - Borrower PAC Amount 15.1
Standard NEWHUD2.X1134 DECIMAL_2 Fee Details - Line 805 - Borrower POC Amount 15.1
Standard NEWHUD2.X1135 DECIMAL_2 Fee Details - Line 805 - Borrower Amount Paid 15.1
Standard NEWHUD2.X1150 YN 2 Fee Details - Line 805 - Borrower Can Shop For 15.1
Standard NEWHUD2.X1151 YN 2 Fee Details - Line 805 - Borrower Did Shop For 15.1
Standard NEWHUD2.X1164 DECIMAL_2 Fee Details - Line 806 - Borrower Financed Amount 15.1
Standard NEWHUD2.X1165 DECIMAL_2 Fee Details - Line 806 - Borrower PTC Amount 15.1
Standard NEWHUD2.X1166 DECIMAL_2 Fee Details - Line 806 - Borrower PAC Amount 15.1
Standard NEWHUD2.X1167 DECIMAL_2 Fee Details - Line 806 - Borrower POC Amount 15.1
Standard NEWHUD2.X1168 DECIMAL_2 Fee Details - Line 806 - Borrower Amount Paid 15.1
Standard NEWHUD2.X1183 YN 2 Fee Details - Line 806 - Borrower Can Shop For 15.1
Standard NEWHUD2.X1184 YN 2 Fee Details - Line 806 - Borrower Did Shop For 15.1
Standard NEWHUD2.X1197 DECIMAL_2 Fee Details - Line 807 - Borrower Financed Amount 15.1
Standard NEWHUD2.X1198 DECIMAL_2 Fee Details - Line 807 - Borrower PTC Amount 15.1
Standard NEWHUD2.X1199 DECIMAL_2 Fee Details - Line 807 - Borrower PAC Amount 15.1
Standard NEWHUD2.X1200 DECIMAL_2 Fee Details - Line 807 - Borrower POC Amount 15.1
Standard NEWHUD2.X1201 DECIMAL_2 Fee Details - Line 807 - Borrower Amount Paid 15.1
Standard NEWHUD2.X1216 YN 2 Fee Details - Line 807 - Borrower Can Shop For 15.1
Standard NEWHUD2.X1217 YN 2 Fee Details - Line 807 - Borrower Did Shop For 15.1
Standard NEWHUD2.X1230 DECIMAL_2 Fee Details - Line 808 - Borrower Financed Amount 15.1
Standard NEWHUD2.X1231 DECIMAL_2 Fee Details - Line 808 - Borrower PTC Amount 15.1
Standard NEWHUD2.X1232 DECIMAL_2 Fee Details - Line 808 - Borrower PAC Amount 15.1
Standard NEWHUD2.X1233 DECIMAL_2 Fee Details - Line 808 - Borrower POC Amount 15.1
Standard NEWHUD2.X1234 DECIMAL_2 Fee Details - Line 808 - Borrower Amount Paid 15.1
Standard NEWHUD2.X1249 YN 2 Fee Details - Line 808 - Borrower Can Shop For 15.1
Standard NEWHUD2.X1250 YN 2 Fee Details - Line 808 - Borrower Did Shop For 15.1
Standard NEWHUD2.X1263 DECIMAL_2 Fee Details - Line 809 - Borrower Financed Amount 15.1
Standard NEWHUD2.X1264 DECIMAL_2 Fee Details - Line 809 - Borrower PTC Amount 15.1
Standard NEWHUD2.X1265 DECIMAL_2 Fee Details - Line 809 - Borrower PAC Amount 15.1
Standard NEWHUD2.X1266 DECIMAL_2 Fee Details - Line 809 - Borrower POC Amount 15.1
Standard NEWHUD2.X1267 DECIMAL_2 Fee Details - Line 809 - Borrower Amount Paid 15.1
Standard NEWHUD2.X1282 YN 2 Fee Details - Line 809 - Borrower Can Shop For 15.1
Standard NEWHUD2.X1283 YN 2 Fee Details - Line 809 - Borrower Did Shop For 15.1
Standard NEWHUD2.X1296 DECIMAL_2 Fee Details - Line 810 - Borrower Financed Amount 15.1
Standard NEWHUD2.X1297 DECIMAL_2 Fee Details - Line 810 - Borrower PTC Amount 15.1
Standard NEWHUD2.X1298 DECIMAL_2 Fee Details - Line 810 - Borrower PAC Amount 15.1
Standard NEWHUD2.X1299 DECIMAL_2 Fee Details - Line 810 - Borrower POC Amount 15.1
Standard NEWHUD2.X1300 DECIMAL_2 Fee Details - Line 810 - Borrower Amount Paid 15.1
Standard NEWHUD2.X1315 YN 2 Fee Details - Line 810 - Borrower Can Shop For 15.1
Standard NEWHUD2.X1316 YN 2 Fee Details - Line 810 - Borrower Did Shop For 15.1
Standard NEWHUD2.X1329 DECIMAL_2 Fee Details - Line 811 - Borrower Financed Amount 15.1
Standard NEWHUD2.X1330 DECIMAL_2 Fee Details - Line 811 - Borrower PTC Amount 15.1
Standard NEWHUD2.X1331 DECIMAL_2 Fee Details - Line 811 - Borrower PAC Amount 15.1
Standard NEWHUD2.X1332 DECIMAL_2 Fee Details - Line 811 - Borrower POC Amount 15.1
Standard NEWHUD2.X1333 DECIMAL_2 Fee Details - Line 811 - Borrower Amount Paid 15.1
Standard NEWHUD2.X1348 YN 2 Fee Details - Line 811 - Borrower Can Shop For 15.1
Standard NEWHUD2.X1349 YN 2 Fee Details - Line 811 - Borrower Did Shop For 15.1
Standard NEWHUD2.X1362 DECIMAL_2 Fee Details - Line 812 - Borrower Financed Amount 15.1
Standard NEWHUD2.X1363 DECIMAL_2 Fee Details - Line 812 - Borrower PTC Amount 15.1
Standard NEWHUD2.X1364 DECIMAL_2 Fee Details - Line 812 - Borrower PAC Amount 15.1
Standard NEWHUD2.X1365 DECIMAL_2 Fee Details - Line 812 - Borrower POC Amount 15.1
Standard NEWHUD2.X1366 DECIMAL_2 Fee Details - Line 812 - Borrower Amount Paid 15.1
Standard NEWHUD2.X1381 YN 2 Fee Details - Line 812 - Borrower Can Shop For 15.1
Standard NEWHUD2.X1382 YN 2 Fee Details - Line 812 - Borrower Did Shop For 15.1
Standard NEWHUD2.X1395 DECIMAL_2 Fee Details - Line 813 - Borrower Financed Amount 15.1
Standard NEWHUD2.X1396 DECIMAL_2 Fee Details - Line 813 - Borrower PTC Amount 15.1
Standard NEWHUD2.X1397 DECIMAL_2 Fee Details - Line 813 - Borrower PAC Amount 15.1
Standard NEWHUD2.X1398 DECIMAL_2 Fee Details - Line 813 - Borrower POC Amount 15.1
Standard NEWHUD2.X1399 DECIMAL_2 Fee Details - Line 813 - Borrower Amount Paid 15.1
Standard NEWHUD2.X141 STRING Fees Line 701 Borrower Checked 15.1
Standard NEWHUD2.X1414 YN 2 Fee Details - Line 813 - Borrower Can Shop For 15.1
Standard NEWHUD2.X1415 YN 2 Fee Details - Line 813 - Borrower Did Shop For 15.1
Standard NEWHUD2.X1428 DECIMAL_2 Fee Details - Line 814 - Borrower Financed Amount 15.1
Standard NEWHUD2.X1429 DECIMAL_2 Fee Details - Line 814 - Borrower PTC Amount 15.1
Standard NEWHUD2.X143 STRING Fees Line 702 Borrower Checked 15.1
Standard NEWHUD2.X1430 DECIMAL_2 Fee Details - Line 814 - Borrower PAC Amount 15.1
Standard NEWHUD2.X1431 DECIMAL_2 Fee Details - Line 814 - Borrower POC Amount 15.1
Standard NEWHUD2.X1432 DECIMAL_2 Fee Details - Line 814 - Borrower Amount Paid 15.1
Standard NEWHUD2.X1447 YN 2 Fee Details - Line 814 - Borrower Can Shop For 15.1
Standard NEWHUD2.X1448 YN 2 Fee Details - Line 814 - Borrower Did Shop For 15.1
Standard NEWHUD2.X145 STRING Fees Line 704 Borrower Checked 15.1
Standard NEWHUD2.X1461 DECIMAL_2 Fee Details - Line 815 - Borrower Financed Amount 15.1
Standard NEWHUD2.X1462 DECIMAL_2 Fee Details - Line 815 - Borrower PTC Amount 15.1
Standard NEWHUD2.X1463 DECIMAL_2 Fee Details - Line 815 - Borrower PAC Amount 15.1
Standard NEWHUD2.X1464 DECIMAL_2 Fee Details - Line 815 - Borrower POC Amount 15.1
Standard NEWHUD2.X1465 DECIMAL_2 Fee Details - Line 815 - Borrower Amount Paid 15.1
Standard NEWHUD2.X147 STRING Fees Line 803 Borrower Checked 15.1
Standard NEWHUD2.X1480 YN 2 Fee Details - Line 815 - Borrower Can Shop For 15.1
Standard NEWHUD2.X1481 YN 2 Fee Details - Line 815 - Borrower Did Shop For 15.1
Standard NEWHUD2.X1494 DECIMAL_2 Fee Details - Line 816 - Borrower Financed Amount 15.1
Standard NEWHUD2.X1495 DECIMAL_2 Fee Details - Line 816 - Borrower PTC Amount 15.1
Standard NEWHUD2.X1496 DECIMAL_2 Fee Details - Line 816 - Borrower PAC Amount 15.1
Standard NEWHUD2.X1497 DECIMAL_2 Fee Details - Line 816 - Borrower POC Amount 15.1
Standard NEWHUD2.X1498 DECIMAL_2 Fee Details - Line 816 - Borrower Amount Paid 15.1
Standard NEWHUD2.X1513 YN 2 Fee Details - Line 816 - Borrower Can Shop For 15.1
Standard NEWHUD2.X1514 YN 2 Fee Details - Line 816 - Borrower Did Shop For 15.1
Standard NEWHUD2.X1527 DECIMAL_2 Fee Details - Line 817 - Borrower Financed Amount 15.1
Standard NEWHUD2.X1528 DECIMAL_2 Fee Details - Line 817 - Borrower PTC Amount 15.1
Standard NEWHUD2.X1529 DECIMAL_2 Fee Details - Line 817 - Borrower PAC Amount 15.1
Standard NEWHUD2.X1530 DECIMAL_2 Fee Details - Line 817 - Borrower POC Amount 15.1
Standard NEWHUD2.X1531 DECIMAL_2 Fee Details - Line 817 - Borrower Amount Paid 15.1
Standard NEWHUD2.X1546 YN 2 Fee Details - Line 817 - Borrower Can Shop For 15.1
Standard NEWHUD2.X1547 YN 2 Fee Details - Line 817 - Borrower Did Shop For 15.1
Standard NEWHUD2.X1560 DECIMAL_2 Fee Details - Line 818 - Borrower Financed Amount 15.1
Standard NEWHUD2.X1561 DECIMAL_2 Fee Details - Line 818 - Borrower PTC Amount 15.1
Standard NEWHUD2.X1562 DECIMAL_2 Fee Details - Line 818 - Borrower PAC Amount 15.1
Standard NEWHUD2.X1563 DECIMAL_2 Fee Details - Line 818 - Borrower POC Amount 15.1
Standard NEWHUD2.X1564 DECIMAL_2 Fee Details - Line 818 - Borrower Amount Paid 15.1
Standard NEWHUD2.X1579 YN 2 Fee Details - Line 818 - Borrower Can Shop For 15.1
Standard NEWHUD2.X1580 YN 2 Fee Details - Line 818 - Borrower Did Shop For 15.1
Standard NEWHUD2.X1593 DECIMAL_2 Fee Details - Line 819 - Borrower Financed Amount 15.1
Standard NEWHUD2.X1594 DECIMAL_2 Fee Details - Line 819 - Borrower PTC Amount 15.1
Standard NEWHUD2.X1595 DECIMAL_2 Fee Details - Line 819 - Borrower PAC Amount 15.1
Standard NEWHUD2.X1596 DECIMAL_2 Fee Details - Line 819 - Borrower POC Amount 15.1
Standard NEWHUD2.X1597 DECIMAL_2 Fee Details - Line 819 - Borrower Amount Paid 15.1
Standard NEWHUD2.X1612 YN 2 Fee Details - Line 819 - Borrower Can Shop For 15.1
Standard NEWHUD2.X1613 YN 2 Fee Details - Line 819 - Borrower Did Shop For 15.1
Standard NEWHUD2.X1626 DECIMAL_2 Fee Details - Line 820 - Borrower Financed Amount 15.1
Standard NEWHUD2.X1627 DECIMAL_2 Fee Details - Line 820 - Borrower PTC Amount 15.1
Standard NEWHUD2.X1628 DECIMAL_2 Fee Details - Line 820 - Borrower PAC Amount 15.1
Standard NEWHUD2.X1629 DECIMAL_2 Fee Details - Line 820 - Borrower POC Amount 15.1
Standard NEWHUD2.X1630 DECIMAL_2 Fee Details - Line 820 - Borrower Amount Paid 15.1
Standard NEWHUD2.X1645 YN 2 Fee Details - Line 820 - Borrower Can Shop For 15.1
Standard NEWHUD2.X1646 YN 2 Fee Details - Line 820 - Borrower Did Shop For 15.1
Standard NEWHUD2.X165 YN 2 Closing Disclosure Page 3 Borrower - Line K03 - Borrower Checked 15.1
Standard NEWHUD2.X1659 DECIMAL_2 Fee Details - Line 821 - Borrower Financed Amount 15.1
Standard NEWHUD2.X166 YN 2 Closing Disclosure Page 3 Borrower - Line K06 - Borrower Checked 15.1
Standard NEWHUD2.X1660 DECIMAL_2 Fee Details - Line 821 - Borrower PTC Amount 15.1
Standard NEWHUD2.X1661 DECIMAL_2 Fee Details - Line 821 - Borrower PAC Amount 15.1
Standard NEWHUD2.X1662 DECIMAL_2 Fee Details - Line 821 - Borrower POC Amount 15.1
Standard NEWHUD2.X1663 DECIMAL_2 Fee Details - Line 821 - Borrower Amount Paid 15.1
Standard NEWHUD2.X167 YN 2 Closing Disclosure Page 3 Borrower - Line K07 - Borrower Checked 15.1
Standard NEWHUD2.X1678 YN 2 Fee Details - Line 821 - Borrower Can Shop For 15.1
Standard NEWHUD2.X1679 YN 2 Fee Details - Line 821 - Borrower Did Shop For 15.1
Standard NEWHUD2.X168 YN 2 Closing Disclosure Page 3 Borrower - Line K15 - Borrower Checked 15.1
Standard NEWHUD2.X169 YN 2 Closing Disclosure Page 3 Borrower - Line L05 - Borrower Checked 15.1
Standard NEWHUD2.X1692 DECIMAL_2 Fee Details - Line 822 - Borrower Financed Amount 15.1
Standard NEWHUD2.X1693 DECIMAL_2 Fee Details - Line 822 - Borrower PTC Amount 15.1
Standard NEWHUD2.X1694 DECIMAL_2 Fee Details - Line 822 - Borrower PAC Amount 15.1
Standard NEWHUD2.X1695 DECIMAL_2 Fee Details - Line 822 - Borrower POC Amount 15.1
Standard NEWHUD2.X1696 DECIMAL_2 Fee Details - Line 822 - Borrower Amount Paid 15.1
Standard NEWHUD2.X170 YN 2 Closing Disclosure Page 3 Borrower - Line L06 - Borrower Checked 15.1
Standard NEWHUD2.X171 YN 2 Closing Disclosure Page 3 Borrower - Line L07 - Borrower Checked 15.1
Standard NEWHUD2.X1711 YN 2 Fee Details - Line 822 - Borrower Can Shop For 15.1
Standard NEWHUD2.X1712 YN 2 Fee Details - Line 822 - Borrower Did Shop For 15.1
Standard NEWHUD2.X172 YN 2 Closing Disclosure Page 3 Borrower - Line L08 - Borrower Checked 15.1
Standard NEWHUD2.X1725 DECIMAL_2 Fee Details - Line 823 - Borrower Financed Amount 15.1
Standard NEWHUD2.X1726 DECIMAL_2 Fee Details - Line 823 - Borrower PTC Amount 15.1
Standard NEWHUD2.X1727 DECIMAL_2 Fee Details - Line 823 - Borrower PAC Amount 15.1
Standard NEWHUD2.X1728 DECIMAL_2 Fee Details - Line 823 - Borrower POC Amount 15.1
Standard NEWHUD2.X1729 DECIMAL_2 Fee Details - Line 823 - Borrower Amount Paid 15.1
Standard NEWHUD2.X173 YN 2 Closing Disclosure Page 3 Borrower - Line L09 - Borrower Checked 15.1
Standard NEWHUD2.X174 YN 2 Closing Disclosure Page 3 Borrower - Line L10 - Borrower Checked 15.1
Standard NEWHUD2.X1744 YN 2 Fee Details - Line 823 - Borrower Can Shop For 15.1
Standard NEWHUD2.X1745 YN 2 Fee Details - Line 823 - Borrower Did Shop For 15.1
Standard NEWHUD2.X175 YN 2 Closing Disclosure Page 3 Borrower - Line L11 - Borrower Checked 15.1
Standard NEWHUD2.X1758 DECIMAL_2 Fee Details - Line 824 - Borrower Financed Amount 15.1
Standard NEWHUD2.X1759 DECIMAL_2 Fee Details - Line 824 - Borrower PTC Amount 15.1
Standard NEWHUD2.X176 YN 2 Closing Disclosure Page 3 Borrower - Line M06 - Borrower Checked 15.1
Standard NEWHUD2.X1760 DECIMAL_2 Fee Details - Line 824 - Borrower PAC Amount 15.1
Standard NEWHUD2.X1761 DECIMAL_2 Fee Details - Line 824 - Borrower POC Amount 15.1
Standard NEWHUD2.X1762 DECIMAL_2 Fee Details - Line 824 - Borrower Amount Paid 15.1
Standard NEWHUD2.X177 YN 2 Closing Disclosure Page 3 Borrower - Line M07 - Borrower Checked 15.1
Standard NEWHUD2.X1777 YN 2 Fee Details - Line 824 - Borrower Can Shop For 15.1
Standard NEWHUD2.X1778 YN 2 Fee Details - Line 824 - Borrower Did Shop For 15.1
Standard NEWHUD2.X178 YN 2 Closing Disclosure Page 3 Borrower - Line M08 - Borrower Checked 15.1
Standard NEWHUD2.X179 YN 2 Closing Disclosure Page 3 Borrower - Line M16 - Borrower Checked 15.1
Standard NEWHUD2.X1791 DECIMAL_2 Fee Details - Line 825 - Borrower Financed Amount 15.1
Standard NEWHUD2.X1792 DECIMAL_2 Fee Details - Line 825 - Borrower PTC Amount 15.1
Standard NEWHUD2.X1793 DECIMAL_2 Fee Details - Line 825 - Borrower PAC Amount 15.1
Standard NEWHUD2.X1794 DECIMAL_2 Fee Details - Line 825 - Borrower POC Amount 15.1
Standard NEWHUD2.X1795 DECIMAL_2 Fee Details - Line 825 - Borrower Amount Paid 15.1
Standard NEWHUD2.X180 YN 2 Closing Disclosure Page 3 Borrower - Line N02 - Borrower Checked 15.1
Standard NEWHUD2.X181 YN 2 Closing Disclosure Page 3 Borrower - Line N08 - Borrower Checked 15.1
Standard NEWHUD2.X1810 YN 2 Fee Details - Line 825 - Borrower Can Shop For 15.1
Standard NEWHUD2.X1811 YN 2 Fee Details - Line 825 - Borrower Did Shop For 15.1
Standard NEWHUD2.X182 YN 2 Closing Disclosure Page 3 Borrower - Line N11 - Borrower Checked 15.1
Standard NEWHUD2.X1824 DECIMAL_2 Fee Details - Line 826 - Borrower Financed Amount 15.1
Standard NEWHUD2.X1825 DECIMAL_2 Fee Details - Line 826 - Borrower PTC Amount 15.1
Standard NEWHUD2.X1826 DECIMAL_2 Fee Details - Line 826 - Borrower PAC Amount 15.1
Standard NEWHUD2.X1827 DECIMAL_2 Fee Details - Line 826 - Borrower POC Amount 15.1
Standard NEWHUD2.X1828 DECIMAL_2 Fee Details - Line 826 - Borrower Amount Paid 15.1
Standard NEWHUD2.X183 YN 2 Closing Disclosure Page 3 Borrower - Line N12 - Borrower Checked 15.1
Standard NEWHUD2.X184 YN 2 Closing Disclosure Page 3 Borrower - Line N13 - Borrower Checked 15.1
Standard NEWHUD2.X1843 YN 2 Fee Details - Line 826 - Borrower Can Shop For 15.1
Standard NEWHUD2.X1844 YN 2 Fee Details - Line 826 - Borrower Did Shop For 15.1
Standard NEWHUD2.X185 YN 2 Closing Disclosure Page 3 Borrower Alternative - Line K01 - Borrower Checked 15.1
Standard NEWHUD2.X1857 DECIMAL_2 Fee Details - Line 827 - Borrower Financed Amount 15.1
Standard NEWHUD2.X1858 DECIMAL_2 Fee Details - Line 827 - Borrower PTC Amount 15.1
Standard NEWHUD2.X1859 DECIMAL_2 Fee Details - Line 827 - Borrower PAC Amount 15.1
Standard NEWHUD2.X186 YN 2 Closing Disclosure Page 3 Borrower Alternative - Line K02 - Borrower Checked 15.1
Standard NEWHUD2.X1860 DECIMAL_2 Fee Details - Line 827 - Borrower POC Amount 15.1
Standard NEWHUD2.X1861 DECIMAL_2 Fee Details - Line 827 - Borrower Amount Paid 15.1
Standard NEWHUD2.X187 YN 2 Closing Disclosure Page 3 Borrower Alternative - Line K03 - Borrower Checked 15.1
Standard NEWHUD2.X1876 YN 2 Fee Details - Line 827 - Borrower Can Shop For 15.1
Standard NEWHUD2.X1877 YN 2 Fee Details - Line 827 - Borrower Did Shop For 15.1
Standard NEWHUD2.X188 YN 2 Closing Disclosure Page 3 Borrower Alternative - Line K04 - Borrower Checked 15.1
Standard NEWHUD2.X189 YN 2 Closing Disclosure Page 3 Borrower Alternative - Line K05 - Borrower Checked 15.1
Standard NEWHUD2.X1890 DECIMAL_2 Fee Details - Line 828 - Borrower Financed Amount 15.1
Standard NEWHUD2.X1891 DECIMAL_2 Fee Details - Line 828 - Borrower PTC Amount 15.1
Standard NEWHUD2.X1892 DECIMAL_2 Fee Details - Line 828 - Borrower PAC Amount 15.1
Standard NEWHUD2.X1893 DECIMAL_2 Fee Details - Line 828 - Borrower POC Amount 15.1
Standard NEWHUD2.X1894 DECIMAL_2 Fee Details - Line 828 - Borrower Amount Paid 15.1
Standard NEWHUD2.X190 YN 2 Closing Disclosure Page 3 Borrower Alternative - Line K06 - Borrower Checked 15.1
Standard NEWHUD2.X1909 YN 2 Fee Details - Line 828 - Borrower Can Shop For 15.1
Standard NEWHUD2.X191 YN 2 Closing Disclosure Page 3 Borrower Alternative - Line K07 - Borrower Checked 15.1
Standard NEWHUD2.X1910 YN 2 Fee Details - Line 828 - Borrower Did Shop For 15.1
Standard NEWHUD2.X192 YN 2 Closing Disclosure Page 3 Borrower Alternative - Line K08 - Borrower Checked 15.1
Standard NEWHUD2.X1923 DECIMAL_2 Fee Details - Line 829 - Borrower Financed Amount 15.1
Standard NEWHUD2.X1924 DECIMAL_2 Fee Details - Line 829 - Borrower PTC Amount 15.1
Standard NEWHUD2.X1925 DECIMAL_2 Fee Details - Line 829 - Borrower PAC Amount 15.1
Standard NEWHUD2.X1926 DECIMAL_2 Fee Details - Line 829 - Borrower POC Amount 15.1
Standard NEWHUD2.X1927 DECIMAL_2 Fee Details - Line 829 - Borrower Amount Paid 15.1
Standard NEWHUD2.X193 YN 2 Closing Disclosure Page 3 Borrower Alternative - Line K09 - Borrower Checked 15.1
Standard NEWHUD2.X194 YN 2 Closing Disclosure Page 3 Borrower Alternative - Line K10 - Borrower Checked 15.1
Standard NEWHUD2.X1942 YN 2 Fee Details - Line 829 - Borrower Can Shop For 15.1
Standard NEWHUD2.X1943 YN 2 Fee Details - Line 829 - Borrower Did Shop For 15.1
Standard NEWHUD2.X195 YN 2 Closing Disclosure Page 3 Borrower Alternative - Line K11 - Borrower Checked 15.1
Standard NEWHUD2.X1956 DECIMAL_2 Fee Details - Line 830 - Borrower Financed Amount 15.1
Standard NEWHUD2.X1957 DECIMAL_2 Fee Details - Line 830 - Borrower PTC Amount 15.1
Standard NEWHUD2.X1958 DECIMAL_2 Fee Details - Line 830 - Borrower PAC Amount 15.1
Standard NEWHUD2.X1959 DECIMAL_2 Fee Details - Line 830 - Borrower POC Amount 15.1
Standard NEWHUD2.X196 YN 2 Closing Disclosure Page 3 Borrower Alternative - Line K12 - Borrower Checked 15.1
Standard NEWHUD2.X1960 DECIMAL_2 Fee Details - Line 830 - Borrower Amount Paid 15.1
Standard NEWHUD2.X197 YN 2 Closing Disclosure Page 3 Borrower Alternative - Line K13 - Borrower Checked 15.1
Standard NEWHUD2.X1975 YN 2 Fee Details - Line 830 - Borrower Can Shop For 15.1
Standard NEWHUD2.X1976 YN 2 Fee Details - Line 830 - Borrower Did Shop For 15.1
Standard NEWHUD2.X198 YN 2 Closing Disclosure Page 3 Borrower Alternative - Line K14 - Borrower Checked 15.1
Standard NEWHUD2.X1989 DECIMAL_2 Fee Details - Line 831 - Borrower Financed Amount 15.1
Standard NEWHUD2.X199 YN 2 Closing Disclosure Page 3 Borrower Alternative - Line K15 - Borrower Checked 15.1
Standard NEWHUD2.X1990 DECIMAL_2 Fee Details - Line 831 - Borrower PTC Amount 15.1
Standard NEWHUD2.X1991 DECIMAL_2 Fee Details - Line 831 - Borrower PAC Amount 15.1
Standard NEWHUD2.X1992 DECIMAL_2 Fee Details - Line 831 - Borrower POC Amount 15.1
Standard NEWHUD2.X1993 DECIMAL_2 Fee Details - Line 831 - Borrower Amount Paid 15.1
Standard NEWHUD2.X2008 YN 2 Fee Details - Line 831 - Borrower Can Shop For 15.1
Standard NEWHUD2.X2009 YN 2 Fee Details - Line 831 - Borrower Did Shop For 15.1
Standard NEWHUD2.X2022 DECIMAL_2 Fee Details - Line 832 - Borrower Financed Amount 15.1
Standard NEWHUD2.X2023 DECIMAL_2 Fee Details - Line 832 - Borrower PTC Amount 15.1
Standard NEWHUD2.X2024 DECIMAL_2 Fee Details - Line 832 - Borrower PAC Amount 15.1
Standard NEWHUD2.X2025 DECIMAL_2 Fee Details - Line 832 - Borrower POC Amount 15.1
Standard NEWHUD2.X2026 DECIMAL_2 Fee Details - Line 832 - Borrower Amount Paid 15.1
Standard NEWHUD2.X2041 YN 2 Fee Details - Line 832 - Borrower Can Shop For 15.1
Standard NEWHUD2.X2042 YN 2 Fee Details - Line 832 - Borrower Did Shop For 15.1
Standard NEWHUD2.X2055 DECIMAL_2 Fee Details - Line 833 - Borrower Financed Amount 15.1
Standard NEWHUD2.X2056 DECIMAL_2 Fee Details - Line 833 - Borrower PTC Amount 15.1
Standard NEWHUD2.X2057 DECIMAL_2 Fee Details - Line 833 - Borrower PAC Amount 15.1
Standard NEWHUD2.X2058 DECIMAL_2 Fee Details - Line 833 - Borrower POC Amount 15.1
Standard NEWHUD2.X2059 DECIMAL_2 Fee Details - Line 833 - Borrower Amount Paid 15.1
Standard NEWHUD2.X207 DECIMAL_2 Fee Details - Line 701 - Borrower Financed Amount 15.1
Standard NEWHUD2.X2074 YN 2 Fee Details - Line 833 - Borrower Can Shop For 15.1
Standard NEWHUD2.X2075 YN 2 Fee Details - Line 833 - Borrower Did Shop For 15.1
Standard NEWHUD2.X208 DECIMAL_2 Fee Details - Line 701 - Borrower PTC Amount 15.1
Standard NEWHUD2.X2088 DECIMAL_2 Fee Details - Line 834 - Borrower Financed Amount 15.1
Standard NEWHUD2.X2089 DECIMAL_2 Fee Details - Line 834 - Borrower PTC Amount 15.1
Standard NEWHUD2.X209 DECIMAL_2 Fee Details - Line 701 - Borrower PAC Amount 15.1
Standard NEWHUD2.X2090 DECIMAL_2 Fee Details - Line 834 - Borrower PAC Amount 15.1
Standard NEWHUD2.X2091 DECIMAL_2 Fee Details - Line 834 - Borrower POC Amount 15.1
Standard NEWHUD2.X2092 DECIMAL_2 Fee Details - Line 834 - Borrower Amount Paid 15.1
Standard NEWHUD2.X210 DECIMAL_2 Fee Details - Line 701 - Borrower POC Amount 15.1
Standard NEWHUD2.X211 DECIMAL_2 Fee Details - Line 701 - Borrower Amount Paid 15.1
Standard NEWHUD2.X2121 DECIMAL_2 Fee Details - Line 835 - Borrower Financed Amount 15.1
Standard NEWHUD2.X2122 DECIMAL_2 Fee Details - Line 835 - Borrower PTC Amount 15.1
Standard NEWHUD2.X2123 DECIMAL_2 Fee Details - Line 835 - Borrower PAC Amount 15.1
Standard NEWHUD2.X2124 DECIMAL_2 Fee Details - Line 835 - Borrower POC Amount 15.1
Standard NEWHUD2.X2125 DECIMAL_2 Fee Details - Line 835 - Borrower Amount Paid 15.1
Standard NEWHUD2.X2154 DECIMAL_2 Fee Details - Line 901 - Borrower Financed Amount 15.1
Standard NEWHUD2.X2155 DECIMAL_2 Fee Details - Line 901 - Borrower PTC Amount 15.1
Standard NEWHUD2.X2156 DECIMAL_2 Fee Details - Line 901 - Borrower PAC Amount 15.1
Standard NEWHUD2.X2157 DECIMAL_2 Fee Details - Line 901 - Borrower POC Amount 15.1
Standard NEWHUD2.X2158 DECIMAL_2 Fee Details - Line 901 - Borrower Amount Paid 15.1
Standard NEWHUD2.X2187 DECIMAL_2 Fee Details - Line 902 - Borrower Financed Amount 15.1
Standard NEWHUD2.X2188 DECIMAL_2 Fee Details - Line 902 - Borrower PTC Amount 15.1
Standard NEWHUD2.X2189 DECIMAL_2 Fee Details - Line 902 - Borrower PAC Amount 15.1
Standard NEWHUD2.X2190 DECIMAL_2 Fee Details - Line 902 - Borrower POC Amount 15.1
Standard NEWHUD2.X2191 DECIMAL_2 Fee Details - Line 902 - Borrower Amount Paid 15.1
Standard NEWHUD2.X2206 YN 2 Fee Details - Line 902 - Borrower Can Shop For 15.1
Standard NEWHUD2.X2207 YN 2 Fee Details - Line 902 - Borrower Did Shop For 15.1
Standard NEWHUD2.X2220 DECIMAL_2 Fee Details - Line 903 - Borrower Financed Amount 15.1
Standard NEWHUD2.X2221 DECIMAL_2 Fee Details - Line 903 - Borrower PTC Amount 15.1
Standard NEWHUD2.X2222 DECIMAL_2 Fee Details - Line 903 - Borrower PAC Amount 15.1
Standard NEWHUD2.X2223 DECIMAL_2 Fee Details - Line 903 - Borrower POC Amount 15.1
Standard NEWHUD2.X2224 DECIMAL_2 Fee Details - Line 903 - Borrower Amount Paid 15.1
Standard NEWHUD2.X2239 YN 2 Fee Details - Line 903 - Borrower Can Shop For 15.1
Standard NEWHUD2.X2240 YN 2 Fee Details - Line 903 - Borrower Did Shop For 15.1
Standard NEWHUD2.X2253 DECIMAL_2 Fee Details - Line 904 - Borrower Financed Amount 15.1
Standard NEWHUD2.X2254 DECIMAL_2 Fee Details - Line 904 - Borrower PTC Amount 15.1
Standard NEWHUD2.X2255 DECIMAL_2 Fee Details - Line 904 - Borrower PAC Amount 15.1
Standard NEWHUD2.X2256 DECIMAL_2 Fee Details - Line 904 - Borrower POC Amount 15.1
Standard NEWHUD2.X2257 DECIMAL_2 Fee Details - Line 904 - Borrower Amount Paid 15.1
Standard NEWHUD2.X226 YN 2 Fee Details - Line 701 - Borrower Can Shop For 15.1
Standard NEWHUD2.X227 YN 2 Fee Details - Line 701 - Borrower Did Shop For 15.1
Standard NEWHUD2.X2272 YN 2 Fee Details - Line 904 - Borrower Can Shop For 15.1
Standard NEWHUD2.X2273 YN 2 Fee Details - Line 904 - Borrower Did Shop For 15.1
Standard NEWHUD2.X2286 DECIMAL_2 Fee Details - Line 905 - Borrower Financed Amount 15.1
Standard NEWHUD2.X2287 DECIMAL_2 Fee Details - Line 905 - Borrower PTC Amount 15.1
Standard NEWHUD2.X2288 DECIMAL_2 Fee Details - Line 905 - Borrower PAC Amount 15.1
Standard NEWHUD2.X2289 DECIMAL_2 Fee Details - Line 905 - Borrower POC Amount 15.1
Standard NEWHUD2.X2290 DECIMAL_2 Fee Details - Line 905 - Borrower Amount Paid 15.1
Standard NEWHUD2.X2305 YN 2 Fee Details - Line 905 - Borrower Can Shop For 15.1
Standard NEWHUD2.X2306 YN 2 Fee Details - Line 905 - Borrower Did Shop For 15.1
Standard NEWHUD2.X2319 DECIMAL_2 Fee Details - Line 906 - Borrower Financed Amount 15.1
Standard NEWHUD2.X2320 DECIMAL_2 Fee Details - Line 906 - Borrower PTC Amount 15.1
Standard NEWHUD2.X2321 DECIMAL_2 Fee Details - Line 906 - Borrower PAC Amount 15.1
Standard NEWHUD2.X2322 DECIMAL_2 Fee Details - Line 906 - Borrower POC Amount 15.1
Standard NEWHUD2.X2323 DECIMAL_2 Fee Details - Line 906 - Borrower Amount Paid 15.1
Standard NEWHUD2.X2338 YN 2 Fee Details - Line 906 - Borrower Can Shop For 15.1
Standard NEWHUD2.X2339 YN 2 Fee Details - Line 906 - Borrower Did Shop For 15.1
Standard NEWHUD2.X2352 DECIMAL_2 Fee Details - Line 907 - Borrower Financed Amount 15.1
Standard NEWHUD2.X2353 DECIMAL_2 Fee Details - Line 907 - Borrower PTC Amount 15.1
Standard NEWHUD2.X2354 DECIMAL_2 Fee Details - Line 907 - Borrower PAC Amount 15.1
Standard NEWHUD2.X2355 DECIMAL_2 Fee Details - Line 907 - Borrower POC Amount 15.1
Standard NEWHUD2.X2356 DECIMAL_2 Fee Details - Line 907 - Borrower Amount Paid 15.1
Standard NEWHUD2.X2371 YN 2 Fee Details - Line 907 - Borrower Can Shop For 15.1
Standard NEWHUD2.X2372 YN 2 Fee Details - Line 907 - Borrower Did Shop For 15.1
Standard NEWHUD2.X2385 DECIMAL_2 Fee Details - Line 908 - Borrower Financed Amount 15.1
Standard NEWHUD2.X2386 DECIMAL_2 Fee Details - Line 908 - Borrower PTC Amount 15.1
Standard NEWHUD2.X2387 DECIMAL_2 Fee Details - Line 908 - Borrower PAC Amount 15.1
Standard NEWHUD2.X2388 DECIMAL_2 Fee Details - Line 908 - Borrower POC Amount 15.1
Standard NEWHUD2.X2389 DECIMAL_2 Fee Details - Line 908 - Borrower Amount Paid 15.1